<- Previous Day | Today | Next Day ->

All Data for 28 October 2021

 

Time A - D Temp A - D Dew Point A - D Humidity A - D Pressure A - D Wind A - D Wind Dir Gust A - D Rain Rate A - D Rain Total
00:00 14.2 12.8 91 1010.8 15.2 SW 25.1 0.0 0.0
00:01 14.2 12.8 91 1010.6 18.3 S 25.1 0.0 0.0
00:02 14.2 12.8 91 1010.7 22.1 S 25.1 0.0 0.0
00:03 14.2 12.8 91 1010.3 18.3 SE 25.1 0.0 0.0
00:04 14.2 12.8 91 1010.6 18.3 S 25.1 0.0 0.0
00:05 14.2 12.8 91 1010.4 17.4 SW 25.1 0.0 0.0
00:06 14.2 12.8 91 1010.5 13.0 S 24.4 0.0 0.0
00:07 14.2 12.8 91 1010.4 17.4 SW 24.4 0.0 0.0
00:08 14.2 12.8 91 1010.3 16.8 S 22.1 0.0 0.0
00:09 14.2 12.8 91 1010.4 17.4 S 22.1 0.0 0.0
00:10 14.2 12.8 91 1010.6 13.6 S 22.1 0.0 0.0
00:11 14.2 12.8 91 1010.5 22.1 S 22.1 0.0 0.0
00:12 14.2 12.8 91 1010.5 22.8 S 22.8 0.0 0.0
00:13 14.2 12.8 91 1010.5 19.0 S 22.8 0.0 0.0
00:14 14.2 12.8 91 1010.2 22.1 WSW 22.8 0.0 0.0
00:15 14.2 12.8 91 1010.3 19.0 SW 22.8 0.0 0.0
00:16 14.2 12.8 91 1010.3 25.9 S 25.9 0.0 0.0
00:17 14.2 12.8 91 1010.3 21.3 S 25.9 0.0 0.0
00:18 14.2 12.8 91 1010.2 18.3 S 25.9 0.0 0.0
00:19 14.2 12.9 92 1010.3 20.6 S 25.9 0.0 0.0
00:20 14.2 12.9 92 1010.2 19.0 S 25.9 0.0 0.0
00:21 14.2 12.9 92 1010.1 18.3 SW 25.9 0.0 0.0
00:22 14.2 12.9 92 1010.2 22.1 S 25.9 0.0 0.0
00:23 14.2 12.9 92 1010.2 22.1 S 25.9 0.0 0.0
00:24 14.2 12.9 92 1010.3 20.6 S 25.9 0.0 0.0
00:25 14.2 12.9 92 1010.0 17.4 S 25.9 0.0 0.0
00:26 14.2 12.9 92 1010.1 16.8 SSE 22.1 0.0 0.0
00:27 14.2 12.9 92 1010.4 18.3 S 22.1 0.0 0.0
00:28 14.2 12.9 92 1010.2 17.4 S 22.1 0.0 0.0
00:29 14.2 12.9 92 1010.1 16.8 SW 22.1 0.0 0.0
00:30 14.1 12.8 92 1010.2 25.1 S 25.1 0.0 0.0
00:31 14.1 12.8 92 1010.2 18.3 S 25.1 0.0 0.0
00:32 14.1 12.8 92 1010.3 20.6 S 25.1 0.0 0.0
00:33 14.1 12.8 92 1010.2 24.4 S 25.1 0.0 0.0
00:34 14.1 12.8 92 1010.2 20.6 WSW 25.1 0.0 0.0
00:35 14.1 12.8 92 1010.2 25.1 S 25.1 0.0 0.0
00:36 14.1 12.8 92 1010.4 25.1 S 25.1 0.0 0.0
00:37 14.1 12.8 92 1010.1 17.4 SW 25.1 0.0 0.0
00:38 14.1 12.8 92 1010.2 22.1 S 25.1 0.0 0.0
00:39 14.1 12.8 92 1010.2 21.3 S 25.1 0.0 0.0
00:40 14.1 12.8 92 1010.4 21.3 S 25.1 0.0 0.0
00:41 14.1 12.8 92 1010.1 20.6 S 25.1 0.0 0.0
00:42 14.1 12.8 92 1010.0 20.6 S 25.1 0.0 0.0
00:43 14.1 12.8 92 1010.1 19.7 S 25.1 0.0 0.0
00:44 14.1 12.8 92 1010.1 23.5 S 25.1 0.0 0.0
00:45 14.1 12.8 92 1009.9 23.5 S 25.1 0.0 0.0
00:46 14.1 12.8 92 1010.1 21.3 S 25.1 0.0 0.0
00:47 14.1 12.8 92 1010.1 18.3 SW 23.5 0.0 0.0
00:48 14.1 12.8 92 1009.9 25.9 SSW 25.9 0.0 0.0
00:49 14.1 12.8 92 1010.1 20.6 SW 25.9 0.0 0.0
00:50 14.1 12.8 92 1010.1 19.0 S 25.9 0.0 0.0
00:51 14.1 12.8 92 1010.1 18.3 S 25.9 0.0 0.0
00:52 14.1 12.8 92 1010.1 27.3 S 27.3 0.0 0.0
00:53 14.1 13.0 93 1010.0 18.3 S 27.3 0.0 0.0
00:54 14.1 13.0 93 1010.0 22.8 S 27.3 0.0 0.0
00:55 14.1 13.0 93 1010.1 22.8 S 27.3 0.0 0.0
00:56 14.1 13.0 93 1010.0 20.6 SW 27.3 0.0 0.0
00:57 14.1 13.0 93 1010.2 15.9 SW 27.3 0.0 0.0
00:58 14.1 13.0 93 1010.0 14.5 S 27.3 0.0 0.0
00:59 14.1 13.0 93 1010.1 17.4 SW 27.3 0.0 0.0
01:00 14.1 13.0 93 1010.1 17.4 S 27.3 0.0 0.0
01:01 14.1 13.0 93 1009.9 17.4 S 27.3 0.0 0.0
01:02 14.1 13.0 93 1010.1 17.4 S 25.1 0.0 0.0
01:03 14.1 13.0 93 1009.9 17.4 S 22.8 0.0 0.0
01:04 14.1 13.0 93 1010.0 17.4 S 22.8 0.0 0.0
01:05 14.1 13.0 93 1010.1 17.4 S 20.6 0.0 0.0
01:06 14.1 13.0 93 1009.8 17.4 S 17.4 0.0 0.0
01:07 14.1 13.0 93 1009.9 17.4 S 17.4 0.0 0.0
01:08 14.1 13.0 93 1010.0 17.4 S 17.4 0.0 0.0
01:09 14.1 13.0 93 1009.8 19.7 S 19.7 0.0 0.0
01:10 14.2 13.1 93 1009.8 22.8 S 22.8 0.0 0.0
01:11 14.2 13.1 93 1010.0 17.4 SW 22.8 0.0 0.0
01:12 14.1 13.0 93 1009.8 17.4 S 22.8 0.0 0.0
01:13 14.2 13.1 93 1010.0 22.1 S 22.8 0.0 0.0
01:14 14.2 13.1 93 1010.0 20.6 S 22.8 0.0 0.0
01:15 14.2 12.9 92 1009.7 18.3 S 22.8 0.0 0.0
01:16 14.2 12.9 92 1009.9 18.3 S 22.8 0.0 0.0
01:17 14.2 12.9 92 1009.9 20.6 S 22.8 0.0 0.0
01:18 14.2 12.9 92 1009.9 25.1 SE 25.1 0.0 0.0
01:19 14.2 12.9 92 1009.7 19.0 S 25.1 0.0 0.0
01:20 14.2 12.9 92 1009.8 20.6 SW 25.1 0.0 0.0
01:21 14.2 12.9 92 1009.9 21.3 SE 25.1 0.0 0.0
01:22 14.2 12.9 92 1009.9 22.8 S 25.1 0.0 0.0
01:23 14.2 12.9 92 1009.8 19.0 S 25.1 0.0 0.0
01:24 14.2 12.9 92 1009.6 23.5 S 25.1 0.0 0.0
01:25 14.2 12.9 92 1009.8 21.3 S 25.1 0.0 0.0
01:26 14.2 12.9 92 1009.8 13.6 S 25.1 0.0 0.0
01:27 14.2 12.9 92 1009.7 13.6 SW 25.1 0.0 0.0
01:28 14.2 12.9 92 1009.8 14.5 SW 25.1 0.0 0.0
01:29 14.2 12.9 92 1009.7 17.4 SW 23.5 0.0 0.0
01:30 14.2 12.9 92 1009.6 19.0 S 23.5 0.0 0.0
01:31 14.2 12.9 92 1009.7 20.6 S 23.5 0.0 0.0
01:32 14.2 12.9 92 1009.6 20.6 S 23.5 0.0 0.0
01:33 14.2 12.9 92 1009.6 16.8 S 23.5 0.0 0.0
01:34 14.2 12.9 92 1009.5 14.5 S 21.3 0.0 0.0
01:35 14.2 12.9 92 1009.6 18.3 S 20.6 0.0 0.0
01:36 14.2 12.9 92 1009.7 18.3 S 20.6 0.0 0.0
01:37 14.2 12.9 92 1009.8 19.7 S 20.6 0.0 0.0
01:38 14.2 12.9 92 1009.8 19.7 S 20.6 0.0 0.0
01:39 14.2 12.9 92 1009.5 25.9 S 25.9 0.0 0.0
01:40 14.2 12.9 92 1009.8 19.0 S 25.9 0.0 0.0
01:41 14.2 12.9 92 1009.7 19.0 S 25.9 0.0 0.0
01:42 14.2 13.1 93 1009.6 19.7 S 25.9 0.0 0.0
01:43 14.2 13.1 93 1009.6 22.1 S 25.9 0.0 0.0
01:44 14.2 13.1 93 1009.7 20.6 S 25.9 0.0 0.0
01:45 14.2 13.1 93 1009.7 22.1 S 25.9 0.0 0.0
01:46 14.2 13.1 93 1009.6 22.1 S 25.9 0.0 0.0
01:47 14.2 13.1 93 1009.6 21.3 S 25.9 0.0 0.0
01:48 14.2 13.1 93 1009.6 13.6 SW 25.9 0.0 0.0
01:49 14.2 13.1 93 1009.7 14.5 S 25.9 0.0 0.0
01:50 14.2 13.1 93 1009.7 18.3 S 22.8 0.0 0.0
01:51 14.2 13.1 93 1009.4 20.6 SW 22.8 0.0 0.0
01:52 14.2 13.1 93 1009.5 20.6 S 22.8 0.0 0.0
01:53 14.1 13.0 93 1009.9 19.0 S 22.8 0.0 0.0
01:54 14.1 13.0 93 1009.6 19.0 SW 22.8 0.0 0.0
01:55 14.1 13.0 93 1009.6 22.1 S 22.8 0.0 0.0
01:56 14.1 13.0 93 1009.5 22.8 S 22.8 0.0 0.0
01:57 14.1 13.0 93 1009.5 22.8 S 22.8 0.0 0.0
01:58 14.1 13.0 93 1009.5 19.0 W 22.8 0.0 0.0
01:59 14.1 13.2 94 1009.5 16.8 S 22.8 0.0 0.0
02:00 14.1 13.2 94 1009.6 16.8 SW 22.8 0.0 0.0
02:01 14.1 13.2 94 1009.4 17.4 S 22.8 0.0 0.0
02:02 14.1 13.2 94 1009.4 15.2 SW 22.8 0.0 0.0
02:03 14.1 13.2 94 1009.5 18.3 SW 22.8 0.0 0.0
02:04 14.1 13.2 94 1009.5 18.3 S 22.8 0.0 0.0
02:05 14.1 13.2 94 1009.4 23.5 S 23.5 0.0 0.0
02:06 14.1 13.2 94 1009.4 23.5 S 23.5 0.0 0.0
02:07 14.1 13.2 94 1009.4 19.7 S 23.5 0.0 0.0
02:08 14.1 13.2 94 1009.3 16.8 S 23.5 0.0 0.0
02:09 14.1 13.2 94 1009.3 16.8 S 23.5 0.0 0.0
02:10 14.1 13.2 94 1009.4 19.7 S 23.5 0.0 0.0
02:11 14.1 13.2 94 1009.3 20.6 S 23.5 0.0 0.0
02:12 14.1 13.2 94 1009.2 14.5 S 23.5 0.0 0.0
02:13 14.1 13.2 94 1009.1 20.6 S 23.5 0.0 0.0
02:14 14.1 13.2 94 1009.2 21.3 S 23.5 0.0 0.0
02:15 14.1 13.3 95 1009.2 21.3 S 23.5 0.0 0.0
02:16 14.1 13.3 95 1009.2 15.9 S 23.5 0.0 0.0
02:17 14.1 13.3 95 1009.1 20.6 S 21.3 0.0 0.0
02:18 14.1 13.3 95 1009.0 18.3 S 21.3 0.0 0.0
02:19 14.1 13.3 95 1009.0 15.9 S 21.3 0.0 0.0
02:20 14.1 13.3 95 1009.0 22.1 SW 22.1 0.0 0.0
02:21 14.1 13.3 95 1009.1 22.1 SSW 22.1 0.0 0.0
02:22 14.1 13.3 95 1009.0 22.8 SE 22.8 0.0 0.0
02:23 14.1 13.3 95 1009.1 20.6 SW 22.8 0.0 0.0
02:24 14.1 13.3 95 1009.1 20.6 S 22.8 0.0 0.0
02:25 14.1 13.3 95 1009.1 19.7 S 22.8 0.0 0.0
02:26 14.1 13.3 95 1009.1 17.4 S 22.8 0.0 0.0
02:27 14.1 13.3 95 1008.9 15.2 S 22.8 0.0 0.0
02:28 14.1 13.3 95 1009.1 13.6 S 22.8 0.0 0.0
02:29 14.1 13.3 95 1009.0 18.3 S 22.8 0.0 0.0
02:30 14.1 13.3 95 1009.2 15.9 SW 22.8 0.0 0.0
02:31 14.1 13.3 95 1009.1 16.8 S 22.8 0.0 0.0
02:32 14.1 13.3 95 1009.0 15.9 SW 20.6 0.0 0.0
02:33 14.1 13.3 95 1009.3 22.1 SSW 22.1 0.0 0.0
02:34 14.1 13.3 95 1009.3 22.1 SSW 22.1 0.0 0.0
02:35 14.1 13.5 96 1009.3 19.0 S 22.1 0.0 0.0
02:36 14.1 13.5 96 1008.9 18.3 S 22.1 0.0 0.0
02:37 14.1 13.5 96 1009.2 16.8 S 22.1 0.0 0.0
02:38 14.1 13.5 96 1009.0 15.2 S 22.1 0.0 0.0
02:39 14.1 13.5 96 1008.9 19.0 SSW 22.1 0.0 0.0
02:40 14.1 13.5 96 1009.0 16.8 S 22.1 0.0 0.0
02:41 14.1 13.5 96 1008.9 15.9 SE 22.1 0.0 0.0
02:42 14.1 13.5 96 1009.0 18.3 SSW 22.1 0.0 0.0
02:43 14.1 13.5 96 1009.1 18.3 S 22.1 0.0 0.0
02:44 14.1 13.5 96 1009.1 15.9 S 22.1 0.0 0.0
02:45 14.1 13.5 96 1008.9 20.6 S 20.6 0.0 0.0
02:46 14.1 13.5 96 1009.0 18.3 SW 20.6 0.0 0.0
02:47 14.1 13.5 96 1009.0 16.8 SE 20.6 0.0 0.0
02:48 14.1 13.5 96 1009.0 16.8 SE 20.6 0.0 0.0
02:49 14.1 13.5 96 1009.0 17.4 S 20.6 0.0 0.0
02:50 14.1 13.5 96 1009.0 17.4 S 20.6 0.0 0.0
02:51 14.1 13.5 96 1008.8 17.4 SSW 20.6 0.0 0.0
02:52 14.1 13.5 96 1009.0 18.3 S 20.6 0.0 0.0
02:53 14.1 13.5 96 1009.0 15.2 S 20.6 0.0 0.0
02:54 14.1 13.5 96 1008.7 17.4 S 20.6 0.0 0.0
02:55 14.1 13.5 96 1008.7 15.9 S 20.6 0.0 0.0
02:56 14.1 13.5 96 1008.8 13.0 SE 18.3 0.0 0.0
02:57 14.1 13.5 96 1008.9 19.7 SE 19.7 0.0 0.0
02:58 14.1 13.5 96 1008.8 15.9 S 19.7 0.0 0.0
02:59 14.1 13.5 96 1008.7 15.9 S 19.7 0.0 0.0
03:00 14.1 13.5 96 1008.8 18.3 SW 19.7 0.0 0.0
03:01 14.1 13.5 96 1008.8 18.3 SW 19.7 0.0 0.0
03:02 14.1 13.5 96 1008.8 18.3 SW 19.7 0.0 0.0
03:03 14.1 13.6 97 1008.7 14.5 NW 19.7 0.0 0.0
03:04 14.1 13.6 97 1009.1 15.2 S 19.7 0.0 0.0
03:05 14.1 13.6 97 1008.8 15.9 NE 19.7 0.0 0.0
03:06 14.1 13.6 97 1008.7 16.8 SE 19.7 0.0 0.0
03:07 14.1 13.6 97 1008.8 19.7 S 19.7 0.0 0.0
03:08 14.1 13.6 97 1008.7 20.6 S 20.6 0.0 0.0
03:09 14.1 13.6 97 1008.7 17.4 S 20.6 0.0 0.0
03:10 14.1 13.6 97 1008.7 15.2 S 20.6 0.0 0.0
03:11 14.1 13.6 97 1008.6 18.3 SW 20.6 0.0 0.0
03:12 14.1 13.6 97 1008.7 18.3 SW 20.6 0.0 0.0
03:13 14.1 13.6 97 1008.8 18.3 S 20.6 0.0 0.0
03:14 14.1 13.6 97 1008.7 16.8 SW 20.6 0.0 0.0
03:15 14.1 13.6 97 1008.8 15.2 S 20.6 0.0 0.0
03:16 14.1 13.6 97 1008.4 22.1 SE 22.1 0.0 0.0
03:17 14.1 13.6 97 1008.5 19.0 S 22.1 0.0 0.0
03:18 14.1 13.6 97 1008.7 13.6 SSW 22.1 0.0 0.0
03:19 14.1 13.6 97 1008.6 13.6 SSW 22.1 0.0 0.0
03:20 14.1 13.6 97 1008.5 15.9 S 22.1 0.0 0.0
03:21 14.1 13.6 97 1008.7 16.8 S 22.1 0.0 0.0
03:22 14.1 13.6 97 1008.6 16.8 SSE 22.1 0.0 0.0
03:23 14.1 13.6 97 1008.8 14.5 E 22.1 0.0 0.0
03:24 14.1 13.6 97 1008.7 18.3 SW 22.1 0.0 0.0
03:25 14.1 13.6 97 1008.4 22.8 S 22.8 0.0 0.1
03:26 14.1 13.6 97 1008.8 13.6 S 22.8 0.8 0.1
03:27 14.1 13.6 97 1008.8 19.7 S 22.8 0.8 0.1
03:28 14.1 13.6 97 1008.7 19.7 S 22.8 0.8 0.1
03:29 14.1 13.6 97 1008.6 17.4 SSW 22.8 0.8 0.1
03:30 14.1 13.6 97 1008.7 19.0 S 22.8 0.8 0.1
03:31 14.1 13.6 97 1008.7 19.0 S 22.8 0.0 0.1
03:32 14.1 13.6 97 1008.5 19.0 S 22.8 0.0 0.1
03:33 14.1 13.6 97 1008.6 17.4 S 22.8 0.0 0.1
03:34 14.1 13.6 97 1008.5 15.9 S 22.8 0.0 0.1
03:35 14.1 13.6 97 1008.5 21.3 S 22.8 0.0 0.1
03:36 14.1 13.6 97 1008.5 20.6 S 21.3 0.0 0.1
03:37 14.1 13.6 97 1008.5 19.7 SW 21.3 0.0 0.1
03:38 14.1 13.8 98 1008.5 21.3 S 21.3 0.0 0.1
03:39 14.1 13.8 98 1008.3 19.0 S 21.3 0.0 0.1
03:40 14.1 13.8 98 1008.5 19.0 S 21.3 0.0 0.1
03:41 14.1 13.8 98 1008.4 18.3 SSW 21.3 0.0 0.1
03:42 14.1 13.8 98 1008.3 19.0 SW 21.3 0.0 0.1
03:43 14.1 13.8 98 1008.5 15.9 SW 21.3 0.0 0.1
03:44 14.1 13.8 98 1008.3 15.9 S 21.3 0.0 0.1
03:45 14.1 13.8 98 1008.1 16.8 S 21.3 0.0 0.1
03:46 14.1 13.8 98 1008.2 20.6 SW 21.3 0.0 0.1
03:47 14.1 13.8 98 1008.4 21.3 S 21.3 0.0 0.1
03:48 14.1 13.8 98 1008.3 22.1 S 22.1 0.0 0.1
03:49 14.1 13.8 98 1008.1 19.7 SSE 22.1 0.0 0.1
03:50 14.1 13.8 98 1008.2 26.6 S 26.6 0.0 0.1
03:51 14.1 13.8 98 1008.4 19.0 S 26.6 0.0 0.1
03:52 14.1 13.8 98 1008.3 20.6 SW 26.6 0.0 0.1
03:53 14.1 13.8 98 1008.2 21.3 S 26.6 0.0 0.1
03:54 14.1 13.8 98 1008.2 19.7 S 26.6 0.0 0.1
03:55 14.1 13.8 98 1008.3 21.3 S 26.6 0.0 0.1
03:56 14.1 13.8 98 1008.3 22.8 S 26.6 0.0 0.1
03:57 14.1 13.8 98 1008.2 18.3 S 26.6 0.0 0.1
03:58 14.1 13.8 98 1008.0 21.3 S 26.6 0.0 0.1
03:59 14.2 13.9 98 1008.1 22.1 WSW 26.6 0.0 0.1
04:00 14.2 13.9 98 1008.1 23.5 S 26.6 0.8 0.1
04:01 14.2 13.9 98 1008.2 23.5 S 23.5 0.8 0.1
04:02 14.2 13.9 98 1008.3 23.5 S 23.5 0.8 0.1
04:03 14.2 13.9 98 1008.0 23.5 S 23.5 0.8 0.1
04:04 14.2 13.9 98 1008.1 23.5 S 23.5 0.8 0.1
04:05 14.2 13.9 98 1008.0 23.5 S 23.5 0.0 0.1
04:06 14.2 13.9 98 1008.0 19.7 SW 23.5 0.0 0.1
04:07 14.2 13.9 98 1008.0 19.7 S 23.5 0.0 0.1
04:08 14.2 13.9 98 1007.9 15.2 S 23.5 0.0 0.1
04:09 14.2 13.9 98 1008.2 11.4 SE 23.5 0.0 0.1
04:10 14.2 13.9 98 1007.9 17.4 S 23.5 0.0 0.1
04:11 14.2 13.9 98 1007.9 17.4 S 23.5 0.0 0.1
04:12 14.2 13.9 98 1007.8 20.6 S 23.5 0.0 0.1
04:13 14.2 13.9 98 1007.8 18.3 SW 23.5 0.0 0.1
04:14 14.2 13.9 98 1007.9 19.0 SW 23.5 0.0 0.1
04:15 14.2 13.9 98 1008.2 25.9 S 25.9 0.8 0.2
04:16 14.2 13.9 98 1007.9 30.4 SSW 30.4 0.8 0.2
04:17 14.2 13.9 98 1007.9 23.5 S 30.4 0.8 0.2
04:18 14.2 13.9 98 1007.8 20.6 SSW 30.4 0.8 0.2
04:19 14.2 13.9 98 1007.9 15.9 S 30.4 0.8 0.2
04:20 14.2 13.9 98 1007.8 17.4 S 30.4 0.0 0.2
04:21 14.2 14.1 99 1007.8 22.1 S 30.4 0.0 0.2
04:22 14.2 14.1 99 1007.7 24.4 SSW 30.4 0.0 0.2
04:23 14.2 14.1 99 1007.7 24.4 SSW 30.4 0.0 0.2
04:24 14.2 14.1 99 1007.8 24.4 S 30.4 0.0 0.2
04:25 14.2 14.1 99 1007.7 25.9 SE 30.4 0.0 0.2
04:26 14.2 14.1 99 1007.6 21.3 SE 25.9 0.0 0.2
04:27 14.2 14.1 99 1007.8 21.3 S 25.9 0.0 0.2
04:28 14.2 14.1 99 1007.7 19.0 S 25.9 0.0 0.2
04:29 14.2 14.1 99 1007.4 18.3 SE 25.9 0.0 0.2
04:30 14.2 14.1 99 1007.7 22.8 S 25.9 0.0 0.2
04:31 14.2 14.1 99 1007.5 23.5 S 25.9 0.0 0.2
04:32 14.2 14.1 99 1007.8 22.8 SSE 25.9 0.0 0.2
04:33 14.2 14.1 99 1007.6 19.7 SW 25.9 0.0 0.2
04:34 14.3 14.2 99 1007.7 25.1 S 25.9 0.0 0.2
04:35 14.2 14.1 99 1007.6 20.6 SSW 25.9 0.0 0.2
04:36 14.3 14.2 99 1007.6 19.0 S 25.1 0.0 0.2
04:37 14.3 14.2 99 1007.8 28.2 SE 28.2 0.0 0.2
04:38 14.3 14.2 99 1007.6 28.2 S 28.2 0.0 0.2
04:39 14.3 14.2 99 1007.6 24.4 S 28.2 0.0 0.2
04:40 14.3 14.2 99 1007.7 28.2 S 28.2 0.0 0.2
04:41 14.3 14.2 99 1007.4 22.8 S 28.2 0.0 0.2
04:42 14.3 14.2 99 1007.4 19.7 SE 28.2 0.0 0.2
04:43 14.3 14.2 99 1007.5 20.6 SE 28.2 0.0 0.2
04:44 14.3 14.2 99 1007.4 19.0 S 28.2 0.0 0.2
04:45 14.3 14.2 99 1007.2 19.7 S 28.2 0.0 0.2
04:46 14.3 14.2 99 1007.5 19.7 SE 28.2 0.0 0.2
04:47 14.3 14.2 99 1007.2 19.7 SE 28.2 0.0 0.2
04:48 14.3 14.2 99 1007.3 19.7 SE 28.2 0.0 0.2
04:49 14.2 14.1 99 1007.2 17.4 S 28.2 0.0 0.2
04:50 14.3 14.2 99 1007.3 19.7 SSW 25.9 0.0 0.2
04:51 14.2 14.1 99 1007.4 21.3 S 25.9 0.0 0.2
04:52 14.3 14.2 99 1007.3 22.8 SSW 25.9 0.0 0.2
04:53 14.3 14.2 99 1007.4 18.3 S 22.8 0.0 0.2
04:54 14.2 14.1 99 1007.2 19.7 S 22.8 0.0 0.2
04:55 14.3 14.2 99 1007.2 16.8 WSW 22.8 0.0 0.2
04:56 14.2 14.1 99 1007.2 15.9 S 22.8 0.0 0.2
04:57 14.2 14.1 99 1007.2 19.0 WSW 22.8 0.0 0.2
04:58 14.2 14.1 99 1007.2 20.6 SW 22.8 0.0 0.2
04:59 14.2 14.1 99 1007.6 21.3 SW 22.8 0.0 0.2
05:00 14.2 14.1 99 1007.4 19.7 SE 22.8 0.0 0.2
05:01 14.2 14.1 99 1007.4 19.7 SE 22.8 0.0 0.2
05:02 14.2 14.1 99 1007.2 19.7 SE 21.3 0.0 0.2
05:03 14.2 14.1 99 1007.2 19.7 SE 21.3 0.0 0.2
05:04 14.2 14.1 99 1006.9 19.7 SE 21.3 0.0 0.2
05:05 14.2 14.1 99 1006.9 19.7 SE 21.3 0.0 0.2
05:06 14.2 14.1 99 1007.3 19.7 SE 21.3 0.0 0.2
05:07 14.3 14.2 99 1007.1 22.1 SE 22.1 0.0 0.2
05:08 14.3 14.2 99 1007.1 21.3 S 22.1 0.0 0.2
05:09 14.3 14.2 99 1007.0 15.9 S 22.1 0.0 0.2
05:10 14.3 14.2 99 1007.1 19.0 S 22.1 0.0 0.2
05:11 14.3 14.2 99 1007.2 22.1 S 22.1 0.0 0.2
05:12 14.3 14.2 99 1007.2 28.2 S 28.2 0.8 0.3
05:13 14.3 14.2 99 1007.0 28.2 S 28.2 0.8 0.3
05:14 14.3 14.2 99 1007.1 19.7 S 28.2 0.8 0.3
05:15 14.3 14.2 99 1007.1 22.1 S 28.2 0.8 0.3
05:16 14.3 14.2 99 1007.1 23.5 SW 28.2 0.8 0.3
05:17 14.3 14.2 99 1007.2 26.6 S 28.2 0.0 0.3
05:18 14.3 14.2 99 1006.9 26.6 SW 28.2 0.0 0.3
05:19 14.3 14.2 99 1007.0 19.0 S 28.2 0.0 0.3
05:20 14.3 14.2 99 1006.8 20.6 S 28.2 0.0 0.3
05:21 14.3 14.2 99 1006.8 22.8 NE 28.2 0.0 0.3
05:22 14.3 14.2 99 1007.0 22.8 SE 28.2 0.0 0.3
05:23 14.3 14.2 99 1007.0 19.0 SW 26.6 0.0 0.3
05:24 14.3 14.2 99 1007.0 21.3 S 26.6 0.0 0.3
05:25 14.3 14.2 99 1007.0 21.3 S 26.6 0.0 0.3
05:26 14.3 14.2 99 1006.9 15.9 SW 26.6 0.0 0.3
05:27 14.3 14.2 99 1006.9 22.8 S 26.6 0.0 0.3
05:28 14.3 14.2 99 1006.9 19.0 S 26.6 0.0 0.3
05:29 14.3 14.2 99 1006.9 19.7 S 22.8 0.0 0.3
05:30 14.3 14.2 99 1006.9 28.2 S 28.2 0.0 0.3
05:31 14.3 14.2 99 1007.0 16.8 SW 28.2 0.0 0.3
05:32 14.3 14.2 99 1006.6 17.4 S 28.2 0.0 0.3
05:33 14.3 14.2 99 1006.9 24.4 S 28.2 0.0 0.3
05:34 14.3 14.2 99 1007.0 21.3 S 28.2 0.0 0.3
05:35 14.3 14.2 99 1007.0 21.3 S 28.2 0.0 0.3
05:36 14.3 14.2 99 1007.0 21.3 S 28.2 0.0 0.3
05:37 14.3 14.2 99 1006.7 19.7 S 28.2 0.0 0.3
05:38 14.3 14.2 99 1006.7 19.7 S 28.2 0.0 0.3
05:39 14.3 14.2 99 1006.7 21.3 S 28.2 0.0 0.3
05:40 14.3 14.2 99 1006.9 22.8 WSW 28.2 0.0 0.3
05:41 14.3 14.2 99 1006.7 22.8 S 24.4 0.0 0.3
05:42 14.3 14.2 99 1006.8 22.8 S 24.4 0.0 0.3
05:43 14.3 14.2 99 1006.8 25.9 S 25.9 0.0 0.3
05:44 14.3 14.2 99 1006.7 25.1 SSE 25.9 0.0 0.3
05:45 14.3 14.2 99 1006.7 19.7 SW 25.9 0.0 0.3
05:46 14.3 14.2 99 1007.0 16.8 NE 25.9 0.0 0.3
05:47 14.3 14.2 99 1006.8 22.8 S 25.9 0.0 0.3
05:48 14.3 14.2 99 1007.0 21.3 S 25.9 0.0 0.3
05:49 14.3 14.2 99 1006.8 19.7 S 25.9 0.0 0.3
05:50 14.3 14.2 99 1006.7 19.7 NW 25.9 0.0 0.3
05:51 14.3 14.2 99 1006.9 19.7 S 25.9 0.0 0.3
05:52 14.3 14.2 99 1006.7 18.3 S 25.9 0.0 0.3
05:53 14.3 14.2 99 1006.7 14.5 S 25.9 0.0 0.3
05:54 14.3 14.2 99 1006.8 18.3 S 25.1 0.0 0.3
05:55 14.3 14.2 99 1006.9 22.1 S 22.8 0.0 0.3
05:56 14.3 14.2 99 1006.7 23.5 S 23.5 0.0 0.3
05:57 14.3 14.2 99 1006.5 23.5 SW 23.5 0.0 0.3
05:58 14.3 14.2 99 1006.7 22.1 SE 23.5 0.0 0.3
05:59 14.3 14.2 99 1006.6 16.8 SSW 23.5 0.0 0.3
06:00 14.3 14.2 99 1006.6 22.1 SE 23.5 0.0 0.3
06:01 14.3 14.2 99 1006.6 19.7 S 23.5 0.0 0.3
06:02 14.3 14.2 99 1006.7 18.3 SSW 23.5 0.0 0.3
06:03 14.3 14.2 99 1006.7 19.0 SSW 23.5 0.0 0.3
06:04 14.3 14.2 99 1006.6 20.6 E 23.5 0.0 0.3
06:05 14.3 14.2 99 1006.4 20.6 S 23.5 0.0 0.3
06:06 14.3 14.2 99 1006.4 22.1 S 23.5 0.0 0.3
06:07 14.3 14.2 99 1006.6 20.6 S 23.5 0.0 0.3
06:08 14.3 14.2 99 1006.6 17.4 SSE 22.1 0.0 0.3
06:09 14.3 14.2 99 1006.5 16.8 S 22.1 0.0 0.3
06:10 14.3 14.2 99 1006.6 16.8 S 22.1 0.0 0.3
06:11 14.3 14.2 99 1006.6 22.1 SW 22.1 0.0 0.3
06:12 14.3 14.2 99 1006.4 19.7 S 22.1 0.0 0.3
06:13 14.3 14.2 99 1006.4 23.5 SW 23.5 0.0 0.3
06:14 14.3 14.2 99 1006.6 16.8 SE 23.5 0.0 0.3
06:15 14.3 14.2 99 1006.4 20.6 SW 23.5 0.0 0.3
06:16 14.3 14.2 99 1006.3 19.7 S 23.5 0.0 0.3
06:17 14.3 14.2 99 1006.5 15.9 SE 23.5 0.0 0.3
06:18 14.3 14.2 99 1006.6 17.4 SSE 23.5 0.0 0.3
06:19 14.3 14.2 99 1006.4 17.4 SSE 23.5 0.0 0.3
06:20 14.3 14.2 99 1006.3 17.4 SSE 23.5 0.0 0.3
06:21 14.3 14.2 99 1006.4 22.1 WSW 23.5 0.0 0.3
06:22 14.3 14.2 99 1006.4 15.2 SW 23.5 0.0 0.3
06:23 14.3 14.2 99 1006.2 19.7 S 23.5 0.0 0.3
06:24 14.2 14.1 99 1006.6 21.3 S 22.1 0.0 0.3
06:25 14.3 14.2 99 1006.3 21.3 S 22.1 0.0 0.3
06:26 14.3 14.2 99 1006.2 21.3 S 22.1 0.0 0.3
06:27 14.2 14.1 99 1006.2 20.6 S 22.1 0.0 0.3
06:28 14.2 14.1 99 1006.4 21.3 S 22.1 0.0 0.3
06:29 14.2 14.1 99 1006.1 16.8 S 22.1 0.0 0.3
06:30 14.2 14.1 99 1006.3 15.9 S 22.1 0.0 0.3
06:31 14.2 14.1 99 1006.4 23.5 S 23.5 0.0 0.3
06:32 14.2 14.1 99 1006.1 23.5 SSE 23.5 0.0 0.3
06:33 14.2 14.1 99 1006.2 19.7 S 23.5 0.0 0.3
06:34 14.2 14.1 99 1006.1 19.7 S 23.5 0.0 0.3
06:35 14.2 14.1 99 1006.1 19.7 S 23.5 0.0 0.3
06:36 14.2 14.1 99 1006.4 22.1 S 23.5 0.0 0.3
06:37 14.2 14.1 99 1006.1 22.1 S 23.5 0.0 0.3
06:38 14.2 14.1 99 1006.1 17.4 S 23.5 0.0 0.3
06:39 14.2 14.1 99 1006.1 15.2 S 23.5 0.0 0.3
06:40 14.2 14.1 99 1006.2 18.3 S 23.5 0.0 0.3
06:41 14.2 14.1 99 1006.2 18.3 S 23.5 0.0 0.3
06:42 14.2 14.1 99 1006.0 21.3 SE 23.5 0.0 0.3
06:43 14.2 14.1 99 1006.2 15.9 ESE 22.1 0.0 0.3
06:44 14.2 14.1 99 1006.0 15.9 S 22.1 0.0 0.3
06:45 14.2 14.1 99 1006.1 14.5 S 22.1 0.0 0.3
06:46 14.2 14.1 99 1006.2 20.6 S 22.1 0.0 0.3
06:47 14.2 14.1 99 1006.0 20.6 S 21.3 0.0 0.3
06:48 14.2 14.1 99 1006.3 20.6 SE 21.3 0.0 0.3
06:49 14.2 14.1 99 1006.1 26.6 S 26.6 0.0 0.3
06:50 14.2 14.1 99 1005.9 25.1 S 26.6 0.0 0.3
06:51 14.2 14.1 99 1006.1 21.3 S 26.6 0.0 0.3
06:52 14.2 14.1 99 1006.0 22.1 SSW 26.6 0.0 0.3
06:53 14.2 14.1 99 1006.3 22.1 S 26.6 0.0 0.3
06:54 14.2 14.1 99 1006.2 19.7 E 26.6 0.0 0.3
06:55 14.3 14.2 99 1005.9 19.0 S 26.6 0.0 0.3
06:56 14.3 14.2 99 1006.0 19.0 S 26.6 0.0 0.3
06:57 14.3 14.2 99 1005.9 19.7 SW 26.6 0.0 0.3
06:58 14.3 14.2 99 1005.8 19.7 S 26.6 0.0 0.3
06:59 14.2 14.1 99 1005.9 16.8 S 25.1 0.0 0.3
07:00 14.2 14.1 99 1005.8 19.0 SW 25.1 0.0 0.3
07:01 14.2 14.1 99 1006.1 19.0 SW 22.1 0.0 0.3
07:02 14.2 14.1 99 1005.9 19.0 SW 22.1 0.0 0.3
07:03 14.2 14.1 99 1005.9 19.0 SW 22.1 0.0 0.3
07:04 14.2 14.1 99 1006.0 19.0 SW 19.7 0.0 0.3
07:05 14.2 14.1 99 1005.8 19.0 SW 19.7 0.0 0.3
07:06 14.2 14.1 99 1005.9 19.0 SW 19.7 0.0 0.3
07:07 14.2 14.1 99 1005.8 22.8 S 22.8 0.0 0.3
07:08 14.2 14.1 99 1005.8 22.1 S 22.8 0.0 0.3
07:09 14.2 14.1 99 1005.9 22.1 S 22.8 0.0 0.3
07:10 14.2 14.1 99 1005.8 22.1 S 22.8 0.0 0.3
07:11 14.2 14.1 99 1005.8 22.1 S 22.8 0.0 0.3
07:12 14.2 14.1 99 1005.8 22.1 S 22.8 0.0 0.3
07:13 14.3 14.2 99 1005.8 19.7 S 22.8 0.0 0.3
07:14 14.3 14.2 99 1005.8 19.7 S 22.8 0.0 0.3
07:15 14.2 14.1 99 1005.8 20.6 S 22.8 0.0 0.3
07:16 14.3 14.2 99 1005.7 18.3 S 22.8 0.0 0.3
07:17 14.3 14.2 99 1005.6 20.6 S 22.8 0.0 0.3
07:18 14.3 14.2 99 1005.6 16.8 SW 22.1 0.0 0.3
07:19 14.3 14.2 99 1005.9 20.6 SE 22.1 0.0 0.3
07:20 14.3 14.2 99 1005.8 17.4 S 22.1 0.0 0.3
07:21 14.3 14.2 99 1005.7 17.4 S 22.1 0.0 0.3
07:22 14.3 14.2 99 1005.5 17.4 S 22.1 0.0 0.3
07:23 14.2 14.1 99 1005.6 17.4 S 20.6 0.0 0.3
07:24 14.2 14.1 99 1005.4 18.3 S 20.6 0.0 0.3
07:25 14.2 14.1 99 1005.5 22.8 WSW 22.8 0.0 0.3
07:26 14.2 14.1 99 1005.6 19.7 S 22.8 0.0 0.3
07:27 14.2 14.1 99 1005.5 19.7 S 22.8 0.0 0.3
07:28 14.2 14.1 99 1005.6 20.6 S 22.8 0.0 0.3
07:29 14.2 14.1 99 1005.4 19.0 S 22.8 0.0 0.3
07:30 14.2 14.1 99 1005.6 19.0 S 22.8 0.0 0.3
07:31 14.2 14.1 99 1005.6 15.9 SSE 22.8 0.0 0.3
07:32 14.2 14.1 99 1005.6 15.9 SSE 22.8 0.0 0.3
07:33 14.2 14.1 99 1005.3 22.8 SE 22.8 0.0 0.3
07:34 14.3 14.2 99 1005.3 22.1 SW 22.8 0.0 0.3
07:35 14.3 14.2 99 1005.4 15.2 S 22.8 0.0 0.3
07:36 14.3 14.2 99 1005.4 16.8 S 22.8 0.0 0.3
07:37 14.3 14.2 99 1005.4 19.0 S 22.8 0.0 0.3
07:38 14.3 14.2 99 1005.4 19.0 S 22.8 0.0 0.3
07:39 14.2 14.1 99 1005.1 19.7 S 22.8 0.0 0.3
07:40 14.3 14.2 99 1005.3 17.4 S 22.8 0.0 0.3
07:41 14.3 14.2 99 1005.5 22.8 S 22.8 0.0 0.3
07:42 14.3 14.2 99 1005.6 22.8 S 22.8 0.0 0.3
07:43 14.3 14.2 99 1005.3 19.0 S 22.8 0.0 0.3
07:44 14.3 14.2 99 1005.4 19.0 S 22.8 0.0 0.3
07:45 14.3 14.2 99 1005.3 17.4 SE 22.8 0.0 0.3
07:46 14.3 14.2 99 1005.3 17.4 SE 22.8 0.0 0.3
07:47 14.3 14.0 98 1005.3 20.6 S 22.8 0.0 0.3
07:48 14.3 14.0 98 1005.4 15.2 SW 22.8 0.0 0.3
07:49 14.2 13.9 98 1005.4 14.5 S 22.8 0.0 0.3
07:50 14.3 14.0 98 1005.4 23.5 S 23.5 0.0 0.3
07:51 14.3 14.0 98 1005.3 16.8 S 23.5 0.0 0.3
07:52 14.3 14.0 98 1005.3 22.8 SSE 23.5 0.0 0.3
07:53 14.2 13.9 98 1005.5 18.3 SE 23.5 0.0 0.3
07:54 14.2 13.9 98 1005.1 18.3 S 23.5 0.0 0.3
07:55 14.2 13.9 98 1005.2 26.6 S 26.6 0.0 0.3
07:56 14.2 13.9 98 1005.5 26.6 S 26.6 0.0 0.3
07:57 14.2 13.9 98 1005.2 24.4 S 26.6 0.0 0.3
07:58 14.2 13.9 98 1005.3 20.6 SE 26.6 0.0 0.3
07:59 14.3 14.0 98 1005.0 19.7 SE 26.6 0.0 0.3
08:00 14.2 13.9 98 1005.3 16.8 E 26.6 0.0 0.3
08:01 14.3 14.0 98 1005.1 20.6 SSW 26.6 0.0 0.3
08:02 14.2 13.9 98 1005.3 20.6 SW 26.6 0.0 0.3
08:03 14.2 13.9 98 1005.1 25.9 SW 26.6 0.0 0.3
08:04 14.3 14.0 98 1005.3 20.6 S 26.6 0.0 0.3
08:05 14.2 13.9 98 1005.1 16.8 S 26.6 0.0 0.3
08:06 14.3 14.0 98 1005.2 20.6 S 26.6 0.0 0.3
08:07 14.2 13.9 98 1005.2 19.7 S 25.9 0.0 0.3
08:08 14.2 13.9 98 1004.9 22.1 S 25.9 0.0 0.3
08:09 14.2 13.9 98 1005.1 21.3 S 25.9 0.0 0.3
08:10 14.3 14.0 98 1005.2 20.6 S 25.9 0.0 0.3
08:11 14.2 13.7 97 1005.1 20.6 S 25.9 0.0 0.3
08:12 14.2 13.7 97 1005.2 16.8 S 25.9 0.0 0.3
08:13 14.3 13.8 97 1005.2 17.4 S 25.9 0.0 0.3
08:14 14.3 13.8 97 1005.2 17.4 S 24.4 0.0 0.3
08:15 14.3 13.8 97 1005.0 18.3 SE 24.4 0.0 0.3
08:16 14.3 13.8 97 1004.9 18.3 S 24.4 0.0 0.3
08:17 14.3 13.8 97 1005.1 18.3 SE 24.4 0.0 0.3
08:18 14.3 13.8 97 1005.1 20.6 S 24.4 0.0 0.3
08:19 14.3 13.8 97 1005.1 19.0 S 24.4 0.0 0.3
08:20 14.3 13.8 97 1005.0 19.0 SE 21.3 0.0 0.3
08:21 14.3 13.8 97 1005.1 22.1 SE 22.1 0.0 0.3
08:22 14.3 13.8 97 1005.2 22.8 S 22.8 0.0 0.3
08:23 14.3 13.8 97 1005.1 22.8 S 22.8 0.0 0.3
08:24 14.3 13.8 97 1005.1 17.4 SW 22.8 0.0 0.3
08:25 14.3 13.8 97 1005.1 21.3 WSW 22.8 0.0 0.3
08:26 14.3 13.8 97 1005.1 17.4 S 22.8 0.0 0.3
08:27 14.3 13.8 97 1004.9 17.4 SW 22.8 0.0 0.3
08:28 14.3 13.7 96 1005.1 19.0 SW 22.8 0.0 0.3
08:29 14.3 13.7 96 1004.9 19.7 S 23.5 0.0 0.3
08:30 14.3 13.7 96 1004.9 19.7 S 23.5 0.0 0.3
08:31 14.3 13.7 96 1005.0 19.0 S 23.5 0.0 0.3
08:32 14.3 13.7 96 1004.8 17.4 SW 23.5 0.0 0.3
08:33 14.3 13.7 96 1005.2 22.1 S 23.5 0.0 0.3
08:34 14.3 13.7 96 1005.0 22.1 S 23.5 0.0 0.3
08:35 14.3 13.7 96 1005.0 19.0 SW 23.5 0.0 0.3
08:36 14.3 13.7 96 1004.9 19.0 SW 23.5 0.0 0.3
08:37 14.3 13.7 96 1005.0 19.7 SE 23.5 0.0 0.3
08:38 14.3 13.7 96 1004.9 15.9 S 23.5 0.0 0.3
08:39 14.3 13.7 96 1004.7 15.9 S 22.1 0.0 0.3
08:40 14.3 13.7 96 1005.0 17.4 SSE 22.1 0.0 0.3
08:41 14.3 13.5 95 1004.8 15.9 SE 22.1 0.0 0.3
08:42 14.3 13.5 95 1005.0 20.6 SW 22.1 0.0 0.3
08:43 14.4 13.6 95 1004.9 20.6 S 22.1 0.0 0.3
08:44 14.4 13.6 95 1004.9 19.7 SW 21.3 0.0 0.3
08:45 14.4 13.6 95 1005.0 19.0 SW 20.6 0.0 0.3
08:46 14.4 13.6 95 1005.1 18.3 S 20.6 0.0 0.3
08:47 14.4 13.6 95 1004.7 17.4 S 20.6 0.0 0.3
08:48 14.4 13.6 95 1005.1 19.0 S 20.6 0.0 0.3
08:49 14.4 13.6 95 1004.7 18.3 SE 20.6 0.0 0.3
08:50 14.4 13.6 95 1004.9 21.3 S 21.3 0.0 0.3
08:51 14.4 13.6 95 1004.8 23.5 S 23.5 0.0 0.3
08:52 14.4 13.6 95 1004.9 19.7 S 23.5 0.0 0.3
08:53 14.4 13.6 95 1004.9 15.2 ENE 23.5 0.0 0.3
08:54 14.4 13.6 95 1004.9 21.3 S 23.5 0.0 0.3
08:55 14.4 13.6 95 1004.7 21.3 S 23.5 0.0 0.3
08:56 14.4 13.6 95 1004.7 28.9 S 28.9 0.0 0.3
08:57 14.4 13.6 95 1004.9 28.9 SE 28.9 0.0 0.3
08:58 14.4 13.6 95 1004.8 18.3 S 28.9 0.0 0.3
08:59 14.4 13.6 95 1004.8 18.3 SW 28.9 0.0 0.3
09:00 14.4 13.6 95 1004.7 22.1 SW 28.9 0.0 0.3
09:01 14.4 13.6 95 1004.8 22.1 SW 28.9 0.0 0.3
09:02 14.4 13.6 95 1004.9 22.1 SW 28.9 0.0 0.3
09:03 14.4 13.6 95 1004.6 22.1 SW 28.9 0.0 0.3
09:04 14.4 13.6 95 1004.8 22.1 SW 28.9 0.0 0.3
09:05 14.4 13.6 95 1004.7 22.1 SW 28.9 0.0 0.3
09:06 14.4 13.5 94 1004.9 19.0 S 28.9 0.0 0.3
09:07 14.4 13.5 94 1004.7 16.8 S 28.9 0.0 0.3
09:08 14.4 13.5 94 1004.6 19.7 SW 22.1 0.0 0.3
09:09 14.4 13.5 94 1004.7 19.0 S 22.1 0.0 0.3
09:10 14.4 13.5 94 1004.6 15.9 S 22.1 0.0 0.3
09:11 14.4 13.5 94 1004.5 19.0 S 22.1 0.0 0.3
09:12 14.4 13.5 94 1004.7 19.0 S 22.1 0.0 0.3
09:13 14.5 13.6 94 1004.5 20.6 SW 22.1 0.0 0.3
09:14 14.5 13.6 94 1004.5 20.6 SW 22.1 0.0 0.3
09:15 14.5 13.6 94 1004.6 20.6 S 22.1 0.0 0.3
09:16 14.5 13.6 94 1004.4 24.4 SW 24.4 0.0 0.3
09:17 14.5 13.6 94 1004.7 19.7 S 24.4 0.0 0.3
09:18 14.5 13.6 94 1004.3 22.8 SW 24.4 0.0 0.3
09:19 14.5 13.6 94 1004.6 17.4 S 24.4 0.0 0.3
09:20 14.5 13.6 94 1004.7 19.0 SE 24.4 0.0 0.3
09:21 14.5 13.6 94 1004.5 26.6 S 26.6 0.0 0.3
09:22 14.5 13.6 94 1004.4 24.4 S 26.6 0.0 0.3
09:23 14.5 13.6 94 1004.5 21.3 SE 26.6 0.0 0.3
09:24 14.5 13.6 94 1004.4 21.3 SE 26.6 0.0 0.3
09:25 14.5 13.6 94 1004.3 21.3 S 26.6 0.0 0.3
09:26 14.5 13.6 94 1004.6 20.6 S 26.6 0.0 0.3
09:27 14.5 13.6 94 1004.4 19.7 S 26.6 0.0 0.3
09:28 14.5 13.6 94 1004.5 19.7 S 26.6 0.0 0.3
09:29 14.5 13.6 94 1004.5 22.1 SSE 26.6 0.0 0.3
09:30 14.5 13.6 94 1004.3 18.3 S 26.6 0.0 0.3
09:31 14.6 13.7 94 1004.4 22.8 SW 26.6 0.0 0.3
09:32 14.6 13.7 94 1004.3 23.5 S 26.6 0.0 0.3
09:33 14.6 13.7 94 1004.4 23.5 S 23.5 0.0 0.3
09:34 14.6 13.7 94 1004.5 21.3 SE 23.5 0.0 0.3
09:35 14.6 13.7 94 1004.3 18.3 S 23.5 0.0 0.3
09:36 14.6 13.7 94 1004.4 19.0 S 23.5 0.0 0.3
09:37 14.6 13.7 94 1004.4 20.6 S 23.5 0.0 0.3
09:38 14.6 13.7 94 1004.5 21.3 S 23.5 0.0 0.3
09:39 14.6 13.7 94 1004.6 18.3 S 23.5 0.0 0.3
09:40 14.6 13.7 94 1004.5 22.1 SW 23.5 0.0 0.3
09:41 14.6 13.5 93 1004.3 18.3 S 23.5 0.0 0.3
09:42 14.6 13.5 93 1004.3 21.3 S 23.5 0.0 0.3
09:43 14.6 13.5 93 1004.2 17.4 S 23.5 0.0 0.3
09:44 14.6 13.5 93 1004.1 19.0 S 22.1 0.0 0.3
09:45 14.6 13.5 93 1004.5 19.0 SE 22.1 0.0 0.3
09:46 14.6 13.5 93 1004.2 17.4 S 22.1 0.0 0.3
09:47 14.6 13.5 93 1004.4 25.9 S 25.9 0.0 0.3
09:48 14.6 13.5 93 1004.3 20.6 S 25.9 0.0 0.3
09:49 14.6 13.5 93 1004.4 19.7 S 25.9 0.0 0.3
09:50 14.6 13.5 93 1004.1 23.5 WSW 25.9 0.0 0.3
09:51 14.6 13.5 93 1004.2 24.4 S 25.9 0.0 0.3
09:52 14.6 13.5 93 1004.1 24.4 S 25.9 0.0 0.3
09:53 14.6 13.5 93 1004.4 22.1 S 25.9 0.0 0.3
09:54 14.6 13.5 93 1004.4 23.5 SW 25.9 0.0 0.3
09:55 14.6 13.5 93 1004.5 24.4 SSW 25.9 0.0 0.3
09:56 14.6 13.5 93 1004.3 28.2 S 28.2 0.0 0.3
09:57 14.6 13.5 93 1004.3 24.4 S 28.2 0.0 0.3
09:58 14.6 13.5 93 1004.3 24.4 S 28.2 0.0 0.3
09:59 14.6 13.5 93 1004.4 25.1 SE 28.2 0.0 0.3
10:00 14.6 13.5 93 1004.0 22.8 S 28.2 0.0 0.3
10:01 14.6 13.5 93 1004.1 22.8 S 28.2 0.0 0.3
10:02 14.6 13.5 93 1004.3 22.8 S 28.2 0.0 0.3
10:03 14.6 13.5 93 1004.3 24.4 SE 28.2 0.0 0.3
10:04 14.6 13.5 93 1004.3 25.9 SSW 28.2 0.0 0.3
10:05 14.6 13.5 93 1004.3 21.3 SW 28.2 0.0 0.3
10:06 14.6 13.5 93 1004.2 27.3 S 28.2 0.0 0.3
10:07 14.6 13.5 93 1004.2 27.3 S 28.2 0.0 0.3
10:08 14.6 13.5 93 1004.2 27.3 S 28.2 0.0 0.3
10:09 14.6 13.5 93 1004.0 28.2 S 28.2 0.0 0.3
10:10 14.6 13.5 93 1004.2 28.2 S 28.2 0.0 0.3
10:11 14.6 13.3 92 1004.2 23.5 S 28.2 0.0 0.3
10:12 14.6 13.3 92 1004.0 27.3 S 28.2 0.0 0.3
10:13 14.6 13.3 92 1004.0 22.1 S 28.2 0.0 0.3
10:14 14.6 13.3 92 1004.0 22.1 S 28.2 0.0 0.3
10:15 14.6 13.3 92 1004.3 25.1 S 28.2 0.0 0.3
10:16 14.6 13.3 92 1004.1 20.6 WSW 28.2 0.0 0.3
10:17 14.6 13.3 92 1004.0 22.1 S 28.2 0.0 0.3
10:18 14.6 13.3 92 1004.1 18.3 SW 28.2 0.0 0.3
10:19 14.6 13.3 92 1003.6 17.4 S 28.2 0.0 0.3
10:20 14.6 13.3 92 1003.9 15.9 S 28.2 0.0 0.3
10:21 14.6 13.3 92 1003.8 19.0 S 27.3 0.0 0.3
10:22 14.6 13.3 92 1003.9 15.2 S 27.3 0.0 0.3
10:23 14.6 13.3 92 1003.9 21.3 SW 25.1 0.0 0.3
10:24 14.6 13.3 92 1003.9 25.9 SW 25.9 0.0 0.3
10:25 14.6 13.3 92 1004.0 27.3 S 27.3 0.0 0.3
10:26 14.7 13.4 92 1004.1 19.7 S 27.3 0.0 0.3
10:27 14.6 13.3 92 1004.2 21.3 SW 27.3 0.0 0.3
10:28 14.7 13.4 92 1004.0 21.3 S 27.3 0.0 0.3
10:29 14.6 13.3 92 1004.0 23.5 S 27.3 0.0 0.3
10:30 14.7 13.4 92 1004.1 25.9 SE 27.3 0.0 0.3
10:31 14.7 13.4 92 1003.9 21.3 S 27.3 0.0 0.3
10:32 14.6 13.3 92 1004.0 19.7 S 27.3 0.0 0.3
10:33 14.6 13.3 92 1003.8 21.3 S 27.3 0.0 0.3
10:34 14.6 13.3 92 1003.9 25.1 S 27.3 0.0 0.3
10:35 14.6 13.3 92 1004.0 24.4 SE 27.3 0.0 0.3
10:36 14.6 13.3 92 1003.8 29.8 SSE 29.8 0.0 0.3
10:37 14.6 13.5 93 1003.7 24.4 S 29.8 0.0 0.3
10:38 14.6 13.5 93 1003.6 29.8 S 29.8 0.0 0.3
10:39 14.6 13.5 93 1003.8 29.8 S 29.8 0.0 0.3
10:40 14.6 13.5 93 1003.7 22.8 S 29.8 0.0 0.3
10:41 14.6 13.5 93 1004.0 23.5 E 29.8 0.0 0.3
10:42 14.6 13.5 93 1003.7 23.5 S 29.8 0.0 0.3
10:43 14.6 13.5 93 1003.8 23.5 S 29.8 0.0 0.3
10:44 14.6 13.5 93 1003.7 24.4 SE 29.8 0.0 0.3
10:45 14.6 13.5 93 1003.5 23.5 SW 29.8 0.0 0.3
10:46 14.6 13.5 93 1003.6 23.5 SW 29.8 0.0 0.3
10:47 14.6 13.5 93 1003.8 27.3 S 29.8 0.0 0.3
10:48 14.6 13.5 93 1003.6 24.4 S 29.8 0.0 0.3
10:49 14.6 13.5 93 1003.8 24.4 S 29.8 0.0 0.3
10:50 14.6 13.5 93 1003.7 22.1 S 27.3 0.0 0.3
10:51 14.6 13.5 93 1003.7 20.6 S 27.3 0.0 0.3
10:52 14.6 13.5 93 1003.5 28.2 S 28.2 0.0 0.3
10:53 14.6 13.5 93 1003.5 23.5 SE 28.2 0.0 0.3
10:54 14.6 13.5 93 1003.3 14.5 S 28.2 0.0 0.3
10:55 14.6 13.5 93 1003.4 32.7 S 32.7 0.0 0.3
10:56 14.6 13.5 93 1003.5 32.7 S 32.7 0.0 0.3
10:57 14.6 13.5 93 1003.5 19.0 S 32.7 0.0 0.3
10:58 14.6 13.5 93 1003.3 19.0 S 32.7 0.0 0.3
10:59 14.6 13.5 93 1003.6 27.3 SW 32.7 0.0 0.3
11:00 14.6 13.5 93 1003.4 27.3 S 32.7 0.0 0.3
11:01 14.6 13.5 93 1003.4 27.3 S 32.7 0.0 0.3
11:02 14.6 13.5 93 1003.5 27.3 S 32.7 0.0 0.3
11:03 14.6 13.5 93 1003.1 27.3 S 32.7 0.0 0.3
11:04 14.6 13.5 93 1003.2 27.3 S 32.7 0.0 0.3
11:05 14.6 13.5 93 1003.3 27.3 S 32.7 0.0 0.3
11:06 14.6 13.5 93 1003.2 29.8 SE 32.7 0.0 0.3
11:07 14.6 13.5 93 1003.2 25.1 S 29.8 0.0 0.3
11:08 14.6 13.5 93 1003.3 25.1 S 29.8 0.0 0.3
11:09 14.6 13.5 93 1003.5 29.8 SSE 30.4 0.0 0.3
11:10 14.6 13.5 93 1003.2 29.8 S 30.4 0.0 0.3
11:11 14.6 13.5 93 1003.4 25.1 S 30.4 0.0 0.3
11:12 14.6 13.5 93 1003.4 24.4 S 30.4 0.8 0.3
11:13 14.6 13.5 93 1003.0 25.1 S 30.4 0.8 0.4
11:14 14.6 13.5 93 1003.3 24.4 SW 30.4 1.5 0.4
11:15 14.6 13.5 93 1003.1 24.4 SW 30.4 2.3 0.4
11:16 14.6 13.5 93 1003.3 22.8 S 30.4 2.3 0.4
11:17 14.6 13.5 93 1003.1 23.5 S 30.4 1.5 0.4
11:18 14.6 13.5 93 1003.3 25.9 S 30.4 2.3 0.5
11:19 14.5 13.4 93 1002.8 25.1 S 30.4 1.5 0.5
11:20 14.5 13.4 93 1003.1 24.4 S 29.8 0.8 0.5
11:21 14.5 13.4 93 1003.1 23.5 WSW 25.9 0.8 0.5
11:22 14.5 13.4 93 1003.2 21.3 SE 25.9 0.8 0.5
11:23 14.5 13.4 93 1003.2 28.2 S 28.2 0.8 0.6
11:24 14.5 13.4 93 1003.2 29.8 S 29.8 1.5 0.6
11:25 14.5 13.4 93 1003.2 21.3 S 29.8 2.3 0.7
11:26 14.5 13.6 94 1003.2 24.4 SE 29.8 2.3 0.7
11:27 14.5 13.6 94 1003.2 19.7 NE 29.8 3.0 0.8
11:28 14.5 13.6 94 1003.2 16.8 S 29.8 2.3 0.8
11:29 14.5 13.6 94 1003.0 25.9 SE 29.8 1.5 0.8
11:30 14.4 13.5 94 1003.1 24.4 S 29.8 0.8 0.8
11:31 14.4 13.5 94 1002.9 19.0 S 29.8 1.5 0.8
11:32 14.4 13.5 94 1003.2 26.6 S 29.8 1.5 0.9
11:33 14.4 13.5 94 1003.0 26.6 S 29.8 2.3 0.9
11:34 14.4 13.5 94 1003.1 24.4 S 29.8 2.3 0.9
11:35 14.4 13.5 94 1003.0 23.5 S 26.6 3.8 1.1
11:36 14.4 13.5 94 1003.0 25.1 S 26.6 3.8 1.1
11:37 14.4 13.5 94 1003.0 22.1 S 26.6 3.0 1.1
11:38 14.4 13.5 94 1002.9 30.4 SSW 30.4 3.0 1.2
11:39 14.4 13.5 94 1002.8 19.7 SW 30.4 4.5 1.3
11:40 14.4 13.5 94 1002.7 25.9 S 30.4 3.8 1.4
11:41 14.4 13.5 94 1002.8 20.6 S 30.4 3.0 1.4
11:42 14.4 13.5 94 1002.9 23.5 SE 30.4 3.8 1.4
11:43 14.4 13.5 94 1002.9 28.2 S 30.4 3.8 1.5
11:44 14.3 13.5 95 1002.8 28.2 SW 30.4 2.3 1.5
11:45 14.3 13.5 95 1002.9 22.8 SW 30.4 1.5 1.6
11:46 14.3 13.5 95 1002.8 21.3 S 30.4 2.3 1.6
11:47 14.3 13.5 95 1002.7 20.6 S 30.4 1.5 1.6
11:48 14.3 13.5 95 1002.7 26.6 SW 30.4 1.5 1.6
11:49 14.3 13.5 95 1002.8 22.1 S 28.2 1.5 1.6
11:50 14.3 13.5 95 1003.0 27.3 NE 28.2 1.5 1.6
11:51 14.3 13.5 95 1002.7 28.9 S 28.9 2.3 1.8
11:52 14.3 13.5 95 1003.0 28.9 S 28.9 2.3 1.8
11:53 14.3 13.5 95 1003.0 26.6 S 28.9 1.5 1.8
11:54 14.4 13.6 95 1002.9 25.1 SSE 28.9 1.5 1.8
11:55 14.4 13.6 95 1002.9 23.5 SW 29.8 1.5 1.8
11:56 14.4 13.6 95 1002.8 30.4 S 30.4 0.0 1.8
11:57 14.4 13.8 96 1002.8 26.6 S 30.4 0.0 1.8
11:58 14.4 13.8 96 1002.7 22.8 S 30.4 0.0 1.8
11:59 14.4 13.8 96 1002.8 22.8 S 30.4 0.0 1.8
12:00 14.4 13.8 96 1002.8 24.4 SSW 30.4 0.0 1.8
12:01 14.4 13.8 96 1002.6 24.4 SSW 30.4 0.0 1.8
12:02 14.4 13.8 96 1002.8 24.4 SSW 30.4 0.0 1.8
12:03 14.4 13.8 96 1002.7 24.4 SSW 30.4 0.0 1.8
12:04 14.4 13.8 96 1002.6 24.4 SSW 30.4 0.0 1.8
12:05 14.4 13.8 96 1002.7 24.4 SSW 30.4 0.0 1.8
12:06 14.4 13.8 96 1002.4 24.4 SSW 30.4 0.0 1.8
12:07 14.4 13.8 96 1002.5 18.3 SE 30.4 0.8 1.8
12:08 14.4 13.8 96 1002.7 25.1 WSW 26.6 0.8 1.8
12:09 14.4 13.8 96 1002.7 25.1 S 25.1 0.8 1.8
12:10 14.4 13.8 96 1002.8 20.6 SE 25.1 0.8 1.8
12:11 14.4 13.9 97 1002.6 23.5 S 25.1 0.8 1.8
12:12 14.4 13.9 97 1002.5 20.6 SSW 25.1 0.0 1.8
12:13 14.4 13.9 97 1002.8 25.1 S 25.1 0.0 1.8
12:14 14.4 13.9 97 1002.7 25.1 W 25.1 0.0 1.8
12:15 14.4 13.9 97 1002.9 21.3 S 25.1 0.0 1.8
12:16 14.4 13.9 97 1002.5 19.0 S 25.1 0.0 1.8
12:17 14.4 13.9 97 1002.6 27.3 S 27.3 0.0 1.8
12:18 14.4 13.9 97 1002.6 27.3 S 27.3 0.0 1.8
12:19 14.4 13.9 97 1002.6 26.6 S 27.3 0.0 1.8
12:20 14.4 13.9 97 1002.7 27.3 SW 27.3 0.0 1.8
12:21 14.4 13.9 97 1002.5 34.2 S 34.2 0.0 1.8
12:22 14.4 13.9 97 1002.6 22.8 S 34.2 0.0 1.8
12:23 14.4 13.9 97 1002.5 29.8 S 34.2 0.0 1.8
12:24 14.4 13.9 97 1002.5 24.4 S 34.2 0.0 1.8
12:25 14.4 13.9 97 1002.4 22.1 S 34.2 0.0 1.8
12:26 14.4 13.9 97 1002.5 15.2 S 34.2 0.0 1.8
12:27 14.4 13.9 97 1002.5 22.1 S 34.2 0.0 1.8
12:28 14.4 13.9 97 1002.6 22.1 S 34.2 0.0 1.8
12:29 14.4 13.9 97 1002.4 31.1 WSW 34.2 0.0 1.8
12:30 14.4 13.9 97 1002.5 28.9 S 34.2 0.0 1.8
12:31 14.4 13.9 97 1002.4 21.3 S 31.1 0.0 1.8
12:32 14.4 13.9 97 1002.5 21.3 S 31.1 0.0 1.8
12:33 14.4 13.9 97 1002.5 25.9 S 31.1 0.0 1.8
12:34 14.4 13.9 97 1002.5 26.6 SE 31.1 0.0 1.8
12:35 14.4 13.9 97 1002.6 30.4 S 31.1 0.0 1.8
12:36 14.4 13.9 97 1002.3 22.8 S 31.1 0.0 1.8
12:37 14.4 14.1 98 1002.2 23.5 SW 31.1 0.0 1.8
12:38 14.4 14.1 98 1002.3 20.6 SW 31.1 0.0 1.8
12:39 14.4 14.1 98 1002.3 19.7 S 31.1 0.0 1.8
12:40 14.4 14.1 98 1002.2 21.3 SW 30.4 0.0 1.8
12:41 14.4 14.1 98 1002.4 19.0 S 30.4 0.0 1.8
12:42 14.4 14.1 98 1002.5 21.3 SW 30.4 0.0 1.8
12:43 14.4 14.1 98 1002.3 22.1 S 30.4 0.0 1.8
12:44 14.4 14.1 98 1002.5 25.9 S 30.4 0.0 1.8
12:45 14.4 14.1 98 1002.2 20.6 S 30.4 0.0 1.9
12:46 14.4 14.1 98 1002.3 22.8 S 27.3 0.8 1.9
12:47 14.4 14.1 98 1002.3 28.2 S 28.2 1.5 2.0
12:48 14.4 14.1 98 1002.1 25.1 S 28.2 1.5 2.0
12:49 14.4 14.1 98 1002.1 25.1 S 28.2 2.3 2.0
12:50 14.4 14.1 98 1002.2 22.8 S 28.2 2.3 2.0
12:51 14.5 14.2 98 1002.2 22.8 S 28.2 1.5 2.0
12:52 14.5 14.2 98 1002.4 20.6 SW 28.2 0.8 2.0
12:53 14.5 14.2 98 1002.3 21.3 S 28.2 0.8 2.0
12:54 14.5 14.2 98 1002.2 22.1 S 28.2 0.8 2.1
12:55 14.4 14.1 98 1002.2 21.3 W 28.2 0.8 2.1
12:56 14.4 14.1 98 1002.2 25.9 S 28.2 0.8 2.1
12:57 14.4 14.1 98 1002.0 19.7 S 28.2 1.5 2.1
12:58 14.4 14.1 98 1002.1 23.5 SW 26.6 1.5 2.1
12:59 14.4 14.1 98 1002.1 23.5 S 26.6 1.5 2.2
13:00 14.4 14.1 98 1001.9 30.4 S 30.4 1.5 2.2
13:01 14.4 14.1 98 1002.0 30.4 S 30.4 1.5 2.2
13:02 14.4 14.1 98 1002.2 30.4 S 30.4 0.8 2.2
13:03 14.4 14.1 98 1001.8 30.4 S 30.4 0.8 2.2
13:04 14.4 14.1 98 1002.0 30.4 S 30.4 0.0 2.2
13:05 14.4 14.1 98 1002.1 30.4 S 30.4 0.0 2.2
13:06 14.4 14.1 98 1002.1 30.4 S 30.4 0.0 2.2
13:07 14.4 14.1 98 1002.0 30.4 S 30.4 0.0 2.2
13:08 14.4 14.1 98 1001.8 28.9 S 30.4 2.3 2.4
13:09 14.4 14.1 98 1001.9 28.9 S 30.4 2.3 2.4
13:10 14.4 14.1 98 1002.0 20.6 NE 30.4 3.0 2.5
13:11 14.4 14.1 98 1001.8 25.1 S 30.4 3.8 2.5
13:12 14.4 14.1 98 1001.8 28.9 S 30.4 3.8 2.5
13:14 14.4 14.1 98 1001.9 26.6 S 30.4 1.5 2.5
13:15 14.4 14.1 98 1001.8 28.9 SW 30.4 0.8 2.5
13:16 14.4 14.1 98 1001.9 24.4 S 30.4 0.8 2.6
13:17 14.4 14.1 98 1001.8 32.0 WSW 32.0 0.8 2.6
13:18 14.4 14.1 98 1001.8 29.8 S 32.0 0.8 2.6
13:19 14.4 14.3 99 1001.8 23.5 SSW 32.0 0.8 2.6
13:20 14.4 14.3 99 1002.0 22.8 SW 32.0 1.5 2.6
13:21 14.4 14.3 99 1002.1 20.6 S 32.0 1.5 2.7
13:22 14.4 14.3 99 1002.1 20.6 S 32.0 1.5 2.7
13:23 14.4 14.3 99 1001.7 25.9 SW 32.0 2.3 2.8
13:24 14.4 14.3 99 1001.8 25.1 WSW 32.0 2.3 2.8
13:25 14.4 14.3 99 1001.7 23.5 S 32.0 2.3 2.8
13:26 14.4 14.3 99 1001.7 28.2 S 32.0 1.5 2.8
13:27 14.4 14.3 99 1001.6 19.7 S 32.0 1.5 2.8
13:28 14.4 14.3 99 1001.6 27.3 S 29.8 0.8 2.8
13:29 14.4 14.3 99 1002.0 26.6 S 28.2 0.8 2.8
13:30 14.4 14.3 99 1001.8 15.9 S 28.2 0.8 2.9
13:31 14.4 14.3 99 1001.6 24.4 SSW 28.2 0.8 2.9
13:32 14.4 14.3 99 1001.7 26.6 S 28.2 0.8 2.9
13:33 14.4 14.3 99 1001.6 22.8 S 28.2 1.5 3.0
13:34 14.4 14.3 99 1001.6 28.9 S 28.9 1.5 3.0
13:35 14.4 14.3 99 1001.6 26.6 S 28.9 2.3 3.1
13:36 14.4 14.3 99 1001.6 23.5 S 28.9 3.0 3.1
13:37 14.4 14.3 99 1001.5 22.1 S 28.9 3.0 3.2
13:38 14.4 14.3 99 1001.5 22.1 S 28.9 3.0 3.2
13:39 14.4 14.3 99 1001.3 27.3 SSW 29.8 3.8 3.3
13:40 14.4 14.3 99 1001.4 19.7 S 29.8 3.0 3.3
13:41 14.4 14.3 99 1001.5 19.7 SSE 29.8 2.3 3.3
13:42 14.4 14.3 99 1001.5 25.1 SW 29.8 2.3 3.3
13:43 14.4 14.3 99 1001.5 29.8 S 29.8 2.3 3.4
13:44 14.4 14.3 99 1001.5 24.4 S 29.8 1.5 3.4
13:45 14.4 14.3 99 1001.6 17.4 SE 29.8 0.8 3.4
13:46 14.4 14.3 99 1001.7 23.5 S 29.8 1.5 3.5
13:47 14.4 14.3 99 1001.5 23.5 S 29.8 1.5 3.5
13:48 14.4 14.3 99 1001.6 24.4 SW 29.8 1.5 3.5
13:49 14.4 14.3 99 1001.5 19.7 SW 29.8 1.5 3.5
13:50 14.4 14.3 99 1001.5 27.3 NNE 29.8 1.5 3.5
13:51 14.4 14.3 99 1001.3 27.3 S 29.8 0.8 3.5
13:52 14.4 14.3 99 1001.5 26.6 S 29.8 1.5 3.6
13:53 14.4 14.3 99 1001.4 25.1 SSW 29.8 0.8 3.6
13:54 14.4 14.3 99 1001.4 25.1 SSW 27.3 0.8 3.6
13:55 14.4 14.3 99 1001.3 21.3 S 27.3 2.3 3.7
13:56 14.4 14.3 99 1001.5 25.1 S 27.3 2.3 3.7
13:57 14.4 14.3 99 1001.2 26.6 S 27.3 2.3 3.8
13:58 14.4 14.3 99 1001.3 22.1 SW 27.3 3.0 3.8
13:59 14.4 14.3 99 1001.4 24.4 WSW 27.3 4.5 4.0
14:00 14.4 14.3 99 1001.1 19.7 S 27.3 3.0 4.0
14:01 14.4 14.3 99 1001.1 18.3 S 27.3 3.8 4.0
14:02 14.4 14.3 99 1001.3 31.1 S 31.1 3.0 4.1
14:03 14.4 14.3 99 1001.2 22.8 S 31.1 3.8 4.2
14:04 14.4 14.3 99 1001.1 22.1 W 31.1 3.0 4.2
14:05 14.4 14.3 99 1001.1 25.9 S 31.1 3.0 4.3
14:06 14.4 14.3 99 1001.0 21.3 S 31.1 3.0 4.3
14:07 14.4 14.3 99 1001.0 16.8 S 31.1 3.8 4.3
14:08 14.4 14.3 99 1001.0 21.3 S 31.1 2.3 4.3
14:09 14.4 14.3 99 1001.2 19.7 S 31.1 2.3 4.4
14:10 14.4 14.3 99 1001.0 22.8 S 31.1 3.0 4.5
14:11 14.4 14.3 99 1001.2 26.6 S 31.1 3.0 4.5
14:12 14.4 14.3 99 1001.2 25.9 S 31.1 3.8 4.7
14:13 14.4 14.3 99 1001.0 19.0 S 26.6 4.5 4.7
14:14 14.4 14.3 99 1001.1 19.0 S 26.6 4.5 4.8
14:15 14.4 14.3 99 1001.1 20.6 SW 26.6 4.5 4.9
14:16 14.4 14.3 99 1001.0 23.5 S 26.6 3.8 4.9
14:17 14.4 14.3 99 1001.2 20.6 S 26.6 3.0 5.0
14:18 14.4 14.3 99 1001.0 19.7 S 26.6 3.0 5.0
14:19 14.4 14.3 99 1001.0 16.8 S 26.6 3.0 5.0
14:20 14.4 14.3 99 1000.9 19.0 SW 26.6 2.3 5.0
14:21 14.4 14.3 99 1001.0 23.5 S 26.6 2.3 5.1
14:22 14.4 14.3 99 1000.9 19.7 SW 25.9 2.3 5.1
14:23 14.4 14.3 99 1000.8 14.5 S 23.5 1.5 5.1
14:24 14.4 14.3 99 1000.8 22.8 SSW 23.5 0.8 5.1
14:25 14.4 14.3 99 1000.9 25.9 SE 25.9 0.8 5.1
14:26 14.4 14.3 99 1000.8 25.9 S 25.9 0.8 5.1
14:27 14.4 14.3 99 1000.9 25.1 S 25.9 0.8 5.2
14:28 14.4 14.3 99 1000.9 25.1 S 25.9 0.8 5.2
14:29 14.4 14.3 99 1001.0 20.6 SSW 25.9 0.8 5.2
14:30 14.4 14.3 99 1000.9 15.2 S 25.9 0.8 5.2
14:31 14.4 14.3 99 1000.9 24.4 S 25.9 0.8 5.2
14:32 14.4 14.3 99 1000.7 22.1 SW 25.9 0.8 5.2
14:33 14.4 14.3 99 1000.6 19.7 NW 25.9 1.5 5.3
14:34 14.4 14.3 99 1000.9 19.7 S 25.9 1.5 5.4
14:35 14.4 14.3 99 1000.9 16.8 S 25.9 2.3 5.4
14:36 14.4 14.3 99 1000.6 17.4 S 25.1 2.3 5.4
14:37 14.4 14.3 99 1000.7 20.6 S 25.1 1.5 5.4
14:38 14.4 14.3 99 1000.5 19.0 SSW 24.4 1.5 5.4
14:39 14.4 14.3 99 1000.8 21.3 SE 24.4 1.5 5.4
14:40 14.4 14.3 99 1000.7 24.4 NW 24.4 0.8 5.4
14:41 14.4 14.3 99 1000.7 21.3 SSW 24.4 0.8 5.4
14:42 14.4 14.3 99 1000.5 20.6 S 24.4 0.8 5.4
14:43 14.4 14.3 99 1000.7 22.8 S 24.4 0.8 5.5
14:44 14.4 14.3 99 1000.7 22.1 WSW 24.4 0.8 5.5
14:45 14.4 14.3 99 1000.7 22.1 S 24.4 0.8 5.5
14:46 14.4 14.3 99 1000.6 14.5 SW 24.4 0.8 5.5
14:47 14.4 14.3 99 1000.8 20.6 SW 24.4 0.8 5.5
14:48 14.4 14.3 99 1000.6 20.6 S 24.4 0.8 5.5
14:49 14.4 14.3 99 1000.8 22.8 SW 24.4 0.8 5.5
14:50 14.4 14.3 99 1000.6 22.8 S 24.4 0.8 5.5
14:51 14.4 14.3 99 1000.8 22.1 S 22.8 0.8 5.5
14:52 14.4 14.3 99 1000.5 19.0 N 22.8 1.5 5.6
14:53 14.4 14.3 99 1000.7 21.3 S 22.8 0.8 5.7
14:54 14.4 14.3 99 1000.7 21.3 S 22.8 1.5 5.7
14:55 14.4 14.3 99 1000.5 19.0 S 22.8 1.5 5.7
14:56 14.4 14.3 99 1000.5 17.4 NW 22.8 1.5 5.7
14:57 14.4 14.3 99 1000.6 15.9 S 22.8 0.8 5.7
14:58 14.4 14.3 99 1000.6 15.9 S 22.8 1.5 5.7
14:59 14.3 14.2 99 1000.8 17.4 S 22.8 1.5 5.8
15:00 14.3 14.2 99 1000.7 22.8 SW 22.8 1.5 5.8
15:01 14.3 14.2 99 1000.7 22.8 SW 22.8 1.5 5.8
15:02 14.3 14.2 99 1000.4 22.8 SW 22.8 1.5 5.8
15:03 14.3 14.2 99 1000.5 22.8 SW 22.8 0.8 5.8
15:04 14.3 14.2 99 1000.5 22.8 SW 22.8 0.0 5.8
15:05 14.3 14.2 99 1000.5 22.8 SW 22.8 0.0 5.8
15:06 14.3 14.2 99 1000.6 22.8 SW 22.8 0.0 5.8
15:07 14.3 14.2 99 1000.4 22.8 SW 22.8 0.0 5.8
15:08 14.4 14.3 99 1000.4 12.1 S 22.8 1.5 5.9
15:09 14.4 14.3 99 1000.5 15.9 SW 22.8 2.3 6.0
15:10 14.4 14.3 99 1000.5 15.9 S 22.8 3.0 6.0
15:11 14.4 14.3 99 1000.5 15.9 WSW 22.8 3.8 6.1
15:12 14.4 14.3 99 1000.6 19.7 NW 22.8 3.8 6.1
15:13 14.4 14.3 99 1000.4 14.5 SW 22.8 2.3 6.2
15:14 14.4 14.3 99 1000.4 14.5 S 22.8 2.3 6.2
15:15 14.4 14.3 99 1000.4 14.5 S 22.8 1.5 6.2
15:16 14.4 14.3 99 1000.4 13.0 S 22.8 0.8 6.2
15:17 14.4 14.3 99 1000.6 13.6 WSW 22.8 0.8 6.2
15:18 14.4 14.3 99 1000.4 15.9 S 19.7 0.8 6.2
15:19 14.4 14.3 99 1000.2 12.1 S 19.7 0.8 6.2
15:20 14.4 14.3 99 1000.2 13.6 S 19.7 0.8 6.2
15:21 14.3 14.2 99 1000.1 12.1 SW 19.7 0.8 6.2
15:22 14.3 14.2 99 1000.0 12.1 SW 19.7 0.8 6.2
15:23 14.3 14.2 99 1000.1 9.2 S 19.0 0.8 6.2
15:24 14.3 14.2 99 1000.1 12.1 SE 15.9 0.0 6.2
15:25 14.3 14.2 99 1000.1 13.0 SW 15.9 0.0 6.2
15:26 14.3 14.2 99 1000.3 15.9 SW 15.9 0.8 6.3
15:27 14.3 14.2 99 1000.1 11.4 SW 15.9 0.8 6.3
15:28 14.3 14.2 99 1000.4 13.6 S 15.9 0.8 6.3
15:29 14.3 14.2 99 1000.3 16.8 S 16.8 0.8 6.3
15:30 14.3 14.2 99 1000.1 16.8 NW 16.8 0.8 6.3
15:31 14.3 14.2 99 1000.1 15.9 SW 16.8 0.0 6.3
15:32 14.3 14.2 99 1000.3 15.2 SW 16.8 0.0 6.3
15:33 14.3 14.2 99 1000.1 13.0 S 16.8 0.0 6.3
15:34 14.3 14.2 99 1000.3 12.1 SW 16.8 0.0 6.3
15:35 14.3 14.2 99 1000.2 14.5 WSW 16.8 0.0 6.3
15:36 14.3 14.2 99 999.9 11.4 S 16.8 0.0 6.3
15:37 14.3 14.2 99 1000.1 13.6 S 16.8 0.0 6.3
15:38 14.3 14.2 99 1000.2 15.9 SW 16.8 0.0 6.3
15:39 14.3 14.2 99 999.9 15.9 SW 16.8 0.0 6.3
15:40 14.3 14.2 99 1000.1 9.2 SW 16.8 0.0 6.3
15:41 14.3 14.2 99 1000.2 9.8 S 16.8 0.0 6.4
15:42 14.3 14.2 99 1000.1 8.3 W 16.8 0.8 6.4
15:43 14.3 14.2 99 1000.2 12.1 SW 16.8 0.8 6.4
15:44 14.3 14.2 99 1000.0 11.4 S 16.8 0.8 6.4
15:45 14.3 14.2 99 1000.3 9.2 SW 15.9 0.8 6.4
15:46 14.3 14.2 99 1000.2 9.2 SW 15.9 1.5 6.4
15:47 14.4 14.3 99 1000.1 7.6 S 15.9 0.8 6.4
15:48 14.4 14.3 99 1000.3 9.2 SW 15.9 0.8 6.4
15:49 14.4 14.3 99 1000.1 9.2 SW 15.9 0.8 6.4
15:50 14.4 14.3 99 1000.3 9.2 S 13.0 0.8 6.4
15:51 14.4 14.3 99 1000.1 8.3 S 13.0 0.0 6.4
15:52 14.4 14.3 99 1000.1 6.0 SE 12.1 0.0 6.4
15:53 14.4 14.3 99 999.9 6.9 SW 12.1 0.0 6.4
15:54 14.4 14.3 99 1000.0 6.9 SW 11.4 0.8 6.5
15:55 14.4 14.3 99 1000.1 6.9 S 9.2 0.8 6.5
15:56 14.3 14.2 99 1000.0 9.8 SW 9.8 0.8 6.5
15:57 14.3 14.2 99 999.8 6.9 S 9.8 0.8 6.5
15:58 14.3 14.2 99 999.9 6.9 SW 9.8 0.8 6.5
15:59 14.3 14.2 99 1000.0 6.9 S 9.8 0.8 6.6
16:00 14.3 14.2 99 999.9 6.9 S 9.8 0.8 6.6
16:01 14.3 14.2 99 999.9 7.6 WSW 9.8 0.8 6.6
16:02 14.3 14.2 99 999.7 6.9 S 9.8 0.8 6.6
16:03 14.3 14.2 99 999.8 6.0 S 9.8 1.5 6.6
16:04 14.3 14.2 99 999.9 6.0 SW 9.8 0.8 6.6
16:05 14.2 14.1 99 999.9 7.6 S 9.8 0.8 6.6
16:06 14.2 14.1 99 999.9 7.6 S 9.8 0.8 6.6
16:07 14.2 14.1 99 1000.0 5.4 S 8.3 0.8 6.6
16:08 14.2 14.1 99 999.7 6.0 S 8.3 0.0 6.6
16:09 14.2 14.1 99 999.6 7.6 NW 8.3 0.0 6.6
16:10 14.2 14.1 99 999.6 7.6 S 8.3 0.0 6.6
16:11 14.2 14.1 99 999.8 6.0 S 8.3 0.0 6.6
16:12 14.2 14.1 99 999.9 6.0 SW 7.6 0.0 6.6
16:13 14.2 14.1 99 999.7 5.4 SW 7.6 0.0 6.6
16:14 14.2 14.1 99 999.8 6.0 S 7.6 0.0 6.6
16:15 14.2 14.1 99 999.6 6.0 S 7.6 0.0 6.6
16:16 14.2 14.1 99 999.5 4.5 SE 7.6 0.0 6.6
16:17 14.1 14.0 99 999.6 6.0 S 7.6 0.0 6.6
16:18 14.1 14.0 99 999.9 6.9 S 7.6 0.0 6.6
16:19 14.1 14.0 99 999.8 7.6 S 7.6 0.0 6.6
16:20 14.1 14.0 99 999.8 5.4 S 7.6 0.0 6.6
16:21 14.1 14.0 99 999.8 5.4 SW 7.6 0.0 6.7
16:22 14.1 14.0 99 999.8 5.4 SW 7.6 0.8 6.7
16:23 14.1 14.0 99 1000.0 5.4 S 7.6 0.8 6.7
16:24 14.1 14.0 99 999.8 4.5 SW 7.6 0.8 6.7
16:25 14.1 14.0 99 999.7 3.8 S 7.6 0.8 6.7
16:26 14.1 14.0 99 999.9 4.5 SW 7.6 0.8 6.7
16:27 14.1 14.0 99 999.8 4.5 S 7.6 0.0 6.7
16:28 14.1 14.0 99 999.7 5.4 SW 7.6 0.0 6.7
16:29 14.1 14.0 99 999.6 5.4 SSE 7.6 0.0 6.7
16:30 14.1 14.0 99 999.8 5.4 SW 6.9 0.0 6.7
16:31 14.1 14.0 99 999.5 5.4 SW 6.9 0.0 6.7
16:32 14.1 14.0 99 999.8 5.4 SW 6.9 0.0 6.7
16:33 14.1 14.0 99 999.7 6.0 S 6.9 0.0 6.7
16:34 14.1 14.0 99 999.9 5.4 SW 6.9 0.8 6.7
16:35 14.1 14.0 99 999.6 4.5 NW 6.9 1.5 6.8
16:36 14.1 14.0 99 999.7 5.4 S 6.9 1.5 6.8
16:37 14.1 14.0 99 999.7 5.4 SE 6.0 1.5 6.8
16:38 14.1 14.0 99 999.7 5.4 SW 6.0 1.5 6.8
16:39 14.1 14.0 99 999.6 4.5 SW 6.0 1.5 6.9
16:40 14.1 14.0 99 999.6 5.4 SW 6.0 0.8 6.9
16:41 14.1 14.0 99 999.8 5.4 S 6.0 0.8 6.9
16:42 14.1 14.0 99 999.7 3.8 S 6.0 0.8 6.9
16:43 14.1 14.0 99 999.5 4.5 S 6.0 1.5 6.9
16:44 14.1 14.0 99 999.6 6.0 S 6.0 0.8 6.9
16:45 14.1 14.0 99 999.6 7.6 SW 7.6 0.8 6.9
16:46 14.1 14.0 99 999.6 6.9 S 7.6 0.8 6.9
16:47 14.1 14.0 99 999.4 6.9 SW 7.6 0.8 6.9
16:48 14.1 14.0 99 999.5 6.0 SW 7.6 0.0 6.9
16:49 14.1 14.0 99 999.6 6.9 S 7.6 0.0 6.9
16:50 14.1 14.0 99 999.5 4.5 NW 7.6 0.0 7.0
16:51 14.1 14.0 99 999.5 7.6 S 7.6 0.8 7.0
16:52 14.1 14.0 99 999.4 6.0 S 7.6 1.5 7.1
16:53 14.1 14.0 99 999.5 8.3 S 8.3 1.5 7.1
16:54 14.1 14.0 99 999.4 8.3 S 8.3 1.5 7.1
16:55 14.0 13.9 99 999.4 7.6 S 8.3 1.5 7.1
16:56 14.0 13.9 99 999.6 7.6 SW 8.3 1.5 7.1
16:57 14.0 13.9 99 999.3 6.9 SW 8.3 0.8 7.1
16:58 14.0 13.9 99 999.4 6.0 SW 8.3 0.8 7.1
16:59 14.0 13.9 99 999.6 6.9 SW 8.3 1.5 7.2
17:00 14.0 13.9 99 999.5 6.9 SW 8.3 1.5 7.2
17:01 14.0 13.9 99 999.6 6.9 SW 8.3 0.8 7.2
17:02 14.0 13.9 99 999.7 6.9 SW 8.3 0.8 7.2
17:03 14.0 13.9 99 999.6 6.9 SW 8.3 0.8 7.2
17:04 14.0 13.9 99 999.6 6.9 SW 8.3 0.0 7.2
17:05 14.0 13.9 99 999.5 6.9 SW 7.6 0.0 7.2
17:06 14.0 13.9 99 999.7 8.3 WSW 8.3 0.0 7.3
17:07 14.0 13.9 99 999.8 6.9 SSE 8.3 2.3 7.4
17:08 14.0 13.9 99 999.4 9.2 SW 9.2 2.3 7.4
17:09 14.0 13.9 99 999.7 7.6 SW 9.2 2.3 7.4
17:10 14.0 13.9 99 999.5 5.4 S 9.2 3.0 7.4
17:11 14.0 13.9 99 999.4 6.0 S 9.2 3.0 7.4
17:12 14.0 13.9 99 999.3 7.6 SW 9.2 0.8 7.4
17:13 14.0 13.9 99 999.3 6.9 SW 9.2 1.5 7.5
17:14 14.0 13.9 99 999.4 6.9 S 9.2 1.5 7.5
17:15 14.0 13.9 99 999.3 6.0 S 9.2 1.5 7.6
17:16 14.0 13.9 99 999.2 4.5 S 9.2 1.5 7.6
17:17 14.0 13.9 99 999.1 6.9 SW 9.2 1.5 7.6
17:18 14.0 13.9 99 999.3 7.6 NNE 9.2 0.8 7.6
17:19 14.0 13.9 99 999.2 6.0 S 7.6 1.5 7.6
17:20 14.0 13.9 99 999.2 6.0 W 7.6 1.5 7.7
17:21 14.0 13.9 99 999.1 5.4 SW 7.6 1.5 7.7
17:22 14.0 13.9 99 999.1 7.6 SSW 7.6 1.5 7.7
17:23 14.0 13.9 99 999.1 6.0 SW 7.6 1.5 7.7
17:24 14.0 13.9 99 999.2 6.0 SW 7.6 1.5 7.7
17:25 14.0 13.9 99 999.1 6.0 SW 7.6 0.8 7.7
17:26 14.0 13.9 99 999.0 6.0 SW 7.6 0.8 7.7
17:27 13.9 13.8 99 999.0 4.5 SW 7.6 1.5 7.8
17:28 13.9 13.8 99 999.0 5.4 SW 7.6 1.5 7.8
17:29 13.9 13.8 99 999.1 3.8 SW 7.6 0.8 7.8
17:30 13.9 13.8 99 999.1 5.4 S 7.6 0.8 7.8
17:31 13.9 13.8 99 998.8 4.5 SW 7.6 0.8 7.8
17:32 13.9 13.8 99 999.0 3.8 SW 6.0 0.8 7.9
17:33 13.9 13.8 99 998.8 4.5 SW 6.0 0.8 7.9
17:34 13.9 13.8 99 998.9 5.4 SW 6.0 0.8 7.9
17:35 13.9 13.8 99 999.1 5.4 SW 6.0 0.8 7.9
17:36 13.9 13.8 99 999.1 5.4 SW 6.0 1.5 7.9
17:37 13.9 13.8 99 999.0 4.5 SW 5.4 0.8 7.9
17:38 13.9 13.8 99 999.2 5.4 SW 5.4 0.8 7.9
17:39 13.9 13.8 99 999.0 6.9 SW 6.9 0.8 7.9
17:40 13.9 13.8 99 999.0 6.9 SW 6.9 0.8 7.9
17:41 13.9 13.8 99 999.0 6.0 SW 6.9 0.0 7.9
17:42 13.9 13.8 99 999.2 5.4 SW 6.9 0.8 8.0
17:43 13.9 13.8 99 999.1 6.0 SW 6.9 0.8 8.0
17:44 13.9 13.8 99 999.3 6.0 S 6.9 0.8 8.0
17:45 13.9 13.8 99 999.3 6.0 S 6.9 0.8 8.0
17:46 13.9 13.8 99 999.3 4.5 SW 6.9 0.8 8.1
17:47 13.9 13.8 99 999.4 5.4 SW 6.9 0.8 8.1
17:48 13.9 13.8 99 999.2 5.4 SW 6.9 0.8 8.1
17:49 13.9 13.8 99 999.1 6.0 S 6.9 0.8 8.1
17:50 13.9 13.8 99 999.4 4.5 NW 6.9 0.8 8.1
17:51 13.9 13.8 99 999.3 4.5 SW 6.0 0.8 8.1
17:52 13.9 13.8 99 999.1 4.5 SW 6.0 0.0 8.1
17:53 13.9 13.8 99 999.4 6.0 S 6.0 0.0 8.1
17:54 13.9 13.8 99 999.4 6.0 S 6.0 0.8 8.1
17:55 13.9 13.8 99 999.4 7.6 SW 7.6 0.8 8.1
17:56 13.9 13.8 99 999.4 6.0 SW 7.6 0.8 8.1
17:57 13.9 13.8 99 999.3 6.0 S 7.6 0.8 8.1
17:58 13.9 13.8 99 999.4 6.0 WSW 7.6 0.8 8.1
17:59 13.9 13.8 99 999.2 4.5 SW 7.6 0.8 8.2
18:00 13.9 13.8 99 999.2 6.9 SW 7.6 0.8 8.2
18:01 13.9 13.8 99 999.2 4.5 S 7.6 0.8 8.2
18:02 13.9 13.8 99 999.3 4.5 SW 7.6 0.8 8.2
18:03 13.9 13.8 99 999.2 5.4 S 7.6 0.8 8.2
18:04 13.9 13.8 99 999.2 4.5 S 7.6 0.0 8.2
18:05 13.9 13.8 99 999.1 4.5 SW 7.6 0.0 8.2
18:06 13.9 13.8 99 999.0 3.8 SW 6.9 0.0 8.3
18:07 13.9 13.8 99 999.0 3.8 SW 6.9 0.8 8.3
18:08 13.9 13.8 99 999.2 3.8 S 6.9 0.8 8.3
18:09 13.9 13.8 99 999.1 4.5 SE 6.9 1.5 8.3
18:10 13.9 13.8 99 998.9 4.5 SSW 6.9 1.5 8.3
18:11 13.9 13.8 99 999.1 4.5 S 6.0 1.5 8.3
18:12 13.9 13.8 99 999.1 3.8 S 5.4 0.8 8.3
18:13 13.9 13.9 100 999.2 4.5 SE 5.4 1.5 8.4
18:14 13.9 13.9 100 999.0 4.5 SW 4.5 0.8 8.4
18:15 13.9 13.9 100 998.9 4.5 SW 4.5 0.8 8.4
18:16 13.9 13.9 100 999.1 4.5 SE 4.5 1.5 8.4
18:17 13.9 13.9 100 999.3 3.8 S 4.5 1.5 8.4
18:18 13.9 13.9 100 999.2 3.8 S 4.5 0.8 8.4
18:19 13.9 13.9 100 999.1 4.5 S 4.5 1.5 8.5
18:20 13.9 13.9 100 999.0 4.5 S 4.5 1.5 8.5
18:21 13.9 13.9 100 999.1 4.5 S 4.5 1.5 8.6
18:22 13.9 13.9 100 999.4 4.5 S 4.5 1.5 8.6
18:23 13.9 13.9 100 999.0 3.8 SW 4.5 3.0 8.7
18:24 13.9 13.9 100 999.1 3.8 S 4.5 2.3 8.7
18:25 13.9 13.9 100 998.9 3.8 S 4.5 2.3 8.7
18:26 13.8 13.8 100 998.9 3.8 S 4.5 1.5 8.7
18:27 13.8 13.7 99 998.8 4.5 SE 4.5 2.3 8.8
18:28 13.8 13.7 99 998.8 3.1 SE 4.5 0.8 8.8
18:29 13.8 13.7 99 998.7 3.1 SE 4.5 1.5 8.8
18:30 13.8 13.7 99 998.7 3.8 SE 4.5 1.5 8.8
18:31 13.8 13.7 99 998.9 3.1 SSW 4.5 2.3 8.9
18:32 13.8 13.7 99 998.8 3.8 S 4.5 1.5 8.9
18:33 13.8 13.7 99 998.9 3.8 SE 4.5 2.3 8.9
18:34 13.8 13.7 99 998.9 3.8 SE 4.5 1.5 8.9
18:35 13.8 13.7 99 998.8 3.1 S 4.5 2.3 9.0
18:36 13.8 13.7 99 998.7 3.8 S 4.5 1.5 9.0
18:37 13.8 13.7 99 998.8 3.1 S 4.5 2.3 9.1
18:38 13.8 13.7 99 998.8 2.2 NW 3.8 1.5 9.1
18:39 13.8 13.7 99 998.9 2.2 S 3.8 1.5 9.1
18:40 13.8 13.7 99 998.6 3.1 SE 3.8 1.5 9.1
18:41 13.8 13.7 99 998.8 0.7 NE 3.8 2.3 9.2
18:42 13.8 13.7 99 998.5 0.7 NE 3.8 1.5 9.2
18:43 13.8 13.7 99 998.6 0.7 NE 3.8 1.5 9.2
18:44 13.8 13.7 99 998.6 0.7 SE 3.8 1.5 9.2
18:45 13.8 13.7 99 998.6 0.7 N 3.8 0.8 9.2
18:46 13.8 13.7 99 998.7 0.7 NE 3.8 0.8 9.3
18:47 13.7 13.6 99 998.9 1.6 S 3.8 0.8 9.3
18:48 13.7 13.6 99 998.3 0.7 S 3.1 0.8 9.3
18:49 13.7 13.6 99 998.6 0.7 NW 3.1 0.8 9.3
18:50 13.7 13.6 99 998.6 0.7 E 3.1 0.8 9.3
18:51 13.7 13.6 99 998.7 0.7 NE 1.6 0.0 9.3
18:52 13.7 13.6 99 998.4 0.0 NE 1.6 0.0 9.3
18:53 13.7 13.6 99 998.5 0.0 SW 1.6 0.0 9.3
18:54 13.7 13.6 99 998.6 1.6 S 1.6 0.0 9.3
18:55 13.6 13.5 99 998.7 1.6 S 1.6 0.0 9.3
18:56 13.6 13.5 99 998.7 1.6 SSW 1.6 0.0 9.3
18:57 13.6 13.5 99 998.7 1.6 NE 1.6 0.0 9.3
18:58 13.6 13.5 99 998.8 1.6 WNW 1.6 0.0 9.3
18:59 13.6 13.5 99 998.6 1.6 WNW 1.6 0.0 9.3
19:00 13.6 13.5 99 998.5 1.6 N 1.6 0.0 9.3
19:01 13.6 13.5 99 998.7 1.6 N 1.6 0.0 9.3
19:02 13.6 13.5 99 998.6 1.6 N 1.6 0.0 9.3
19:03 13.6 13.5 99 998.5 1.6 N 1.6 0.0 9.3
19:04 13.6 13.5 99 998.5 1.6 N 1.6 0.0 9.3
19:05 13.6 13.5 99 998.7 1.6 N 1.6 0.0 9.3
19:06 13.6 13.5 99 998.5 1.6 N 1.6 0.0 9.3
19:07 13.6 13.5 99 998.5 2.2 NW 2.2 0.8 9.3
19:08 13.6 13.5 99 998.5 1.6 NNE 2.2 0.8 9.3
19:09 13.6 13.5 99 998.5 2.2 S 2.2 0.8 9.3
19:10 13.6 13.5 99 998.4 3.1 SSW 3.1 0.8 9.3
19:11 13.6 13.5 99 998.6 2.2 SW 3.1 0.8 9.3
19:12 13.6 13.5 99 998.4 1.6 NE 3.1 0.0 9.3
19:13 13.6 13.5 99 998.3 1.6 NE 3.1 0.0 9.3
19:14 13.6 13.5 99 998.5 0.7 N 3.1 0.0 9.3
19:15 13.6 13.5 99 998.4 0.7 WNW 3.1 0.0 9.3
19:16 13.6 13.5 99 998.5 1.6 E 3.1 0.0 9.3
19:17 13.6 13.5 99 998.3 3.1 SE 3.1 0.0 9.3
19:18 13.6 13.5 99 998.4 0.7 S 3.1 0.0 9.3
19:19 13.7 13.6 99 998.5 0.7 SE 3.1 0.0 9.3
19:20 13.7 13.6 99 998.3 0.7 N 3.1 0.0 9.3
19:21 13.7 13.6 99 998.1 2.2 NE 3.1 0.0 9.3
19:22 13.7 13.6 99 998.1 1.6 NE 3.1 0.0 9.3
19:23 13.7 13.6 99 997.9 1.6 N 3.1 0.0 9.3
19:24 13.7 13.6 99 998.1 3.1 NE 3.1 0.0 9.3
19:25 13.7 13.7 100 998.4 3.1 NE 3.1 0.0 9.3
19:26 13.7 13.7 100 998.1 3.1 NE 3.1 0.0 9.3
19:27 13.7 13.7 100 998.1 1.6 NNE 3.1 0.0 9.3
19:28 13.7 13.7 100 998.1 1.6 WNW 3.1 0.0 9.3
19:29 13.7 13.7 100 998.2 0.7 S 3.1 0.8 9.4
19:30 13.7 13.7 100 998.3 3.1 NE 3.1 0.8 9.4
19:31 13.8 13.8 100 998.2 3.1 E 3.1 1.5 9.4
19:32 13.8 13.8 100 998.3 1.6 WNW 3.1 1.5 9.4
19:33 13.8 13.8 100 998.3 2.2 NE 3.1 1.5 9.5
19:34 13.8 13.8 100 998.2 2.2 NE 3.1 1.5 9.5
19:35 13.8 13.8 100 998.3 3.1 S 3.1 1.5 9.5
19:36 13.8 13.8 100 998.1 1.6 SE 3.1 0.8 9.5
19:37 13.8 13.8 100 997.8 2.2 N 3.1 0.8 9.5
19:38 13.8 13.8 100 998.1 3.1 NE 3.1 0.8 9.5
19:39 13.8 13.8 100 998.2 1.6 N 3.1 0.0 9.5
19:40 13.8 13.8 100 998.0 1.6 N 3.1 0.0 9.5
19:41 13.8 13.8 100 998.1 1.6 N 3.1 0.0 9.5
19:42 13.8 13.8 100 998.1 2.2 NE 3.1 0.0 9.5
19:43 13.8 13.8 100 997.9 3.8 SW 3.8 0.0 9.5
19:44 13.8 13.8 100 998.1 3.8 SW 3.8 0.0 9.5
19:45 13.8 13.8 100 997.9 3.8 NE 3.8 0.8 9.6
19:46 13.8 13.8 100 998.1 2.2 SE 3.8 0.8 9.6
19:47 13.8 13.8 100 997.9 3.1 N 3.8 0.8 9.6
19:48 13.8 13.8 100 997.9 3.1 N 3.8 0.8 9.6
19:49 13.8 13.8 100 998.0 3.1 N 3.8 0.8 9.6
19:50 13.8 13.8 100 997.8 3.1 N 3.8 0.0 9.6
19:51 13.8 13.8 100 997.9 4.5 SW 4.5 0.0 9.6
19:52 13.8 13.8 100 998.0 3.1 WNW 4.5 0.0 9.6
19:53 13.8 13.8 100 998.0 3.1 S 4.5 0.0 9.6
19:54 13.8 13.8 100 997.9 3.1 S 4.5 0.0 9.6
19:55 13.8 13.8 100 997.9 3.1 SW 4.5 0.0 9.6
19:56 13.8 13.8 100 998.0 3.8 SE 4.5 0.0 9.6
19:57 13.8 13.8 100 997.8 1.6 SE 4.5 0.0 9.6
19:58 13.8 13.8 100 997.7 4.5 NW 4.5 0.0 9.6
19:59 13.8 13.8 100 997.9 3.8 WNW 4.5 0.0 9.6
20:00 13.8 13.8 100 997.8 6.9 SE 6.9 0.0 9.6
20:01 13.8 13.8 100 997.9 6.9 SE 6.9 0.0 9.6
20:02 13.8 13.8 100 998.0 6.9 E 6.9 0.0 9.6
20:03 13.8 13.8 100 997.7 5.4 SE 6.9 0.0 9.6
20:04 13.8 13.8 100 997.8 5.4 SE 6.9 0.0 9.6
20:05 13.8 13.8 100 997.5 5.4 SE 6.9 0.0 9.6
20:06 13.8 13.8 100 997.5 4.5 SW 6.9 0.0 9.6
20:07 13.8 13.8 100 997.6 3.8 E 6.9 0.0 9.6
20:08 13.8 13.8 100 997.6 4.5 SE 6.9 0.0 9.6
20:09 13.8 13.8 100 997.7 7.6 S 7.6 0.0 9.6
20:10 13.8 13.8 100 997.6 7.6 SE 7.6 0.0 9.6
20:11 13.8 13.8 100 997.5 7.6 SE 7.6 0.0 9.6
20:12 13.8 13.8 100 997.7 6.0 SW 7.6 0.0 9.6
20:13 13.8 13.8 100 997.6 4.5 SW 7.6 0.0 9.6
20:14 13.8 13.8 100 997.5 6.9 S 7.6 0.0 9.6
20:15 13.8 13.8 100 997.6 8.3 S 8.3 0.0 9.6
20:16 13.8 13.8 100 997.4 8.3 S 8.3 0.0 9.6
20:17 13.8 13.8 100 997.6 8.3 S 8.3 0.0 9.6
20:18 13.8 13.8 100 997.5 8.3 S 8.3 0.0 9.6
20:19 13.8 13.8 100 997.6 8.3 SSW 9.2 0.8 9.6
20:20 13.8 13.8 100 997.5 6.9 SW 9.2 0.8 9.6
20:21 13.8 13.8 100 997.3 6.0 S 9.2 0.8 9.6
20:22 13.8 13.8 100 997.4 6.9 E 9.2 0.8 9.6
20:23 13.8 13.8 100 997.6 8.3 NE 9.2 0.8 9.6
20:24 13.8 13.8 100 997.3 8.3 S 9.2 0.0 9.6
20:25 13.8 13.8 100 997.5 9.2 S 9.2 0.0 9.6
20:26 13.8 13.8 100 997.3 8.3 SE 9.2 0.0 9.6
20:27 13.8 13.8 100 997.4 9.2 SE 9.2 0.8 9.7
20:28 13.8 13.8 100 997.4 9.2 S 9.2 0.8 9.7
20:29 13.9 13.9 100 997.3 11.4 S 11.4 0.8 9.7
20:30 13.9 13.9 100 997.2 16.8 S 16.8 0.8 9.7
20:31 13.9 13.9 100 997.4 16.8 S 16.8 0.8 9.7
20:32 14.0 14.0 100 997.4 15.9 S 16.8 0.0 9.7
20:33 14.0 14.0 100 996.9 13.0 S 16.8 0.0 9.7
20:34 14.0 14.0 100 996.9 13.0 S 16.8 0.0 9.7
20:35 14.0 14.0 100 997.1 13.0 S 16.8 0.0 9.7
20:36 14.1 14.1 100 997.2 13.6 S 16.8 0.0 9.7
20:37 14.1 14.1 100 997.2 10.7 S 16.8 0.0 9.7
20:38 14.1 14.1 100 997.2 13.6 S 16.8 0.0 9.7
20:39 14.2 14.2 100 997.1 13.0 S 16.8 0.0 9.7
20:40 14.2 14.2 100 997.1 21.3 S 21.3 0.8 9.8
20:41 14.2 14.2 100 997.1 21.3 S 21.3 0.8 9.8
20:42 14.2 14.2 100 997.2 14.5 SSW 21.3 0.8 9.8
20:43 14.3 14.3 100 997.2 17.4 SW 21.3 0.8 9.8
20:44 14.3 14.3 100 997.2 16.8 S 21.3 0.8 9.8
20:45 14.3 14.3 100 997.0 15.2 S 21.3 0.0 9.8
20:46 14.3 14.3 100 997.2 16.8 SE 21.3 0.8 9.8
20:47 14.3 14.3 100 997.0 16.8 SE 21.3 0.8 9.8
20:48 14.4 14.4 100 997.2 17.4 S 21.3 0.8 9.8
20:49 14.4 14.4 100 997.1 19.7 WSW 21.3 0.8 9.9
20:50 14.4 14.4 100 997.1 14.5 SW 21.3 1.5 9.9
20:51 14.4 14.4 100 997.0 18.3 S 21.3 1.5 10.0
20:52 14.4 14.4 100 997.1 18.3 S 21.3 1.5 10.0
20:53 14.5 14.5 100 997.0 17.4 SW 21.3 1.5 10.0
20:54 14.5 14.5 100 997.0 14.5 S 21.3 1.5 10.0
20:55 14.5 14.5 100 997.1 19.0 S 21.3 0.8 10.0
20:56 14.5 14.5 100 997.0 18.3 SW 21.3 0.0 10.0
20:57 14.5 14.5 100 996.7 18.3 S 21.3 0.8 10.0
20:58 14.5 14.5 100 996.9 19.0 S 21.3 0.8 10.0
20:59 14.6 14.6 100 997.1 22.8 S 22.8 0.8 10.0
21:00 14.6 14.6 100 996.9 18.3 SSW 22.8 1.5 10.1
21:01 14.6 14.6 100 996.9 18.3 SSW 22.8 1.5 10.1
21:02 14.6 14.6 100 996.9 18.3 SSW 22.8 0.8 10.1
21:04 14.6 14.6 100 997.1 18.3 SSW 22.8 0.8 10.1
21:05 14.6 14.6 100 997.0 18.3 SSW 22.8 0.0 10.1
21:06 14.6 14.6 100 996.9 18.3 SSW 22.8 0.0 10.1
21:07 14.6 14.6 100 996.9 18.3 S 22.8 0.8 10.1
21:08 14.6 14.6 100 997.0 21.3 SSE 22.8 0.8 10.1
21:09 14.6 14.6 100 996.9 25.9 S 25.9 0.8 10.2
21:10 14.6 14.6 100 996.9 25.9 S 25.9 1.5 10.2
21:11 14.6 14.6 100 996.8 24.4 S 25.9 1.5 10.2
21:12 14.6 14.6 100 996.8 19.7 S 25.9 0.8 10.2
21:13 14.6 14.6 100 996.9 19.7 S 25.9 0.8 10.2
21:14 14.6 14.6 100 996.5 25.1 NW 25.9 1.5 10.3
21:15 14.6 14.6 100 997.0 23.5 S 25.9 1.5 10.3
21:16 14.6 14.6 100 996.7 20.6 S 25.9 2.3 10.4
21:17 14.6 14.6 100 996.9 19.7 SW 25.9 2.3 10.4
21:18 14.6 14.6 100 996.8 18.3 S 25.9 2.3 10.4
21:19 14.6 14.6 100 997.0 15.2 S 25.9 2.3 10.5
21:20 14.6 14.6 100 996.8 20.6 SW 25.9 1.5 10.5
21:21 14.6 14.6 100 996.8 15.9 SW 25.1 0.8 10.5
21:22 14.6 14.6 100 996.7 19.0 S 25.1 0.8 10.5
21:23 14.6 14.6 100 996.8 19.7 S 25.1 1.5 10.5
21:24 14.6 14.6 100 996.4 16.8 S 23.5 0.8 10.5
21:25 14.6 14.6 100 996.8 24.4 S 24.4 1.5 10.6
21:26 14.6 14.6 100 996.7 15.9 S 24.4 1.5 10.6
21:27 14.6 14.6 100 996.4 22.8 SW 24.4 2.3 10.6
21:28 14.6 14.6 100 996.5 19.0 S 24.4 2.3 10.7
21:29 14.6 14.6 100 996.7 19.7 SW 24.4 2.3 10.7
21:30 14.6 14.6 100 996.4 27.3 S 27.3 1.5 10.7
21:31 14.6 14.6 100 996.7 23.5 S 27.3 1.5 10.7
21:32 14.6 14.6 100 996.3 23.5 S 27.3 0.8 10.7
21:33 14.6 14.6 100 996.6 26.6 S 27.3 0.0 10.7
21:34 14.6 14.6 100 996.4 23.5 SW 27.3 0.0 10.7
21:35 14.6 14.6 100 996.7 19.0 S 27.3 0.8 10.8
21:36 14.6 14.6 100 996.6 20.6 S 27.3 0.8 10.8
21:37 14.6 14.6 100 996.8 22.1 SW 27.3 1.5 10.8
21:38 14.6 14.6 100 996.8 17.4 S 27.3 1.5 10.8
21:39 14.6 14.6 100 996.8 32.0 W 32.0 1.5 10.8
21:40 14.6 14.6 100 996.6 26.6 S 32.0 0.8 10.8
21:41 14.5 14.5 100 996.7 23.5 SW 32.0 0.8 10.8
21:42 14.5 14.5 100 996.8 19.7 S 32.0 0.0 10.8
21:43 14.5 14.5 100 996.9 23.5 S 32.0 0.8 10.9
21:44 14.5 14.5 100 996.8 23.5 S 32.0 0.8 10.9
21:45 14.4 14.4 100 996.7 21.3 S 32.0 0.8 10.9
21:46 14.4 14.4 100 996.7 21.3 SE 32.0 0.8 10.9
21:47 14.4 14.4 100 996.6 15.9 S 32.0 0.8 10.9
21:48 14.4 14.4 100 996.7 17.4 S 32.0 0.0 10.9
21:49 14.4 14.4 100 996.8 22.8 S 32.0 0.0 10.9
21:50 14.3 14.3 100 996.4 19.7 S 26.6 0.0 10.9
21:51 14.3 14.3 100 996.6 16.8 S 23.5 0.0 11.0
21:52 14.3 14.3 100 996.5 19.0 SW 23.5 0.8 11.0
21:53 14.3 14.3 100 996.4 20.6 SE 23.5 0.8 11.0
21:54 14.3 14.3 100 996.7 20.6 SE 23.5 0.8 11.0
21:55 14.3 14.3 100 996.4 17.4 S 23.5 0.8 11.0
21:56 14.3 14.3 100 996.5 15.9 S 23.5 0.8 11.0
21:57 14.3 14.3 100 996.5 19.0 S 23.5 0.0 11.0
21:58 14.3 14.3 100 996.5 16.8 S 23.5 0.0 11.0
21:59 14.3 14.3 100 996.6 16.8 SW 23.5 0.0 11.0
22:00 14.2 14.2 100 996.6 19.0 SW 23.5 0.8 11.0
22:01 14.2 14.2 100 996.5 15.2 S 23.5 0.8 11.0
22:02 14.2 14.2 100 996.4 21.3 SSW 23.5 0.8 11.0
22:03 14.2 14.2 100 996.6 17.4 SW 23.5 1.5 11.1
22:04 14.2 14.2 100 996.7 25.1 S 25.1 1.5 11.1
22:05 14.2 14.2 100 996.8 22.8 S 25.1 0.8 11.1
22:06 14.2 14.2 100 996.5 22.8 WSW 25.1 0.8 11.1
22:07 14.2 14.2 100 996.7 22.8 S 25.1 0.8 11.1
22:08 14.2 14.2 100 996.6 15.9 SE 25.1 0.0 11.1
22:09 14.2 14.2 100 996.3 19.7 S 25.1 0.0 11.1
22:10 14.2 14.2 100 996.6 20.6 S 25.1 0.0 11.1
22:11 14.2 14.2 100 996.6 20.6 S 25.1 0.0 11.1
22:12 14.1 14.1 100 996.5 17.4 S 25.1 0.0 11.1
22:13 14.1 14.1 100 996.5 17.4 S 25.1 0.8 11.2
22:14 14.1 14.1 100 996.3 19.7 SE 25.1 0.8 11.2
22:15 14.1 14.1 100 996.5 19.0 SW 22.8 0.8 11.2
22:16 14.1 14.1 100 996.5 13.0 S 22.8 1.5 11.2
22:17 14.1 14.1 100 996.7 13.0 S 22.8 1.5 11.2
22:18 14.1 14.1 100 996.6 17.4 S 20.6 0.8 11.2
22:19 14.0 14.0 100 996.4 17.4 S 20.6 1.5 11.3
22:20 14.0 14.0 100 996.6 14.5 S 20.6 1.5 11.3
22:21 14.0 14.0 100 996.4 14.5 S 19.7 0.8 11.3
22:22 14.0 14.0 100 996.7 14.5 S 19.7 1.5 11.3
22:23 13.9 13.9 100 996.2 14.5 SSW 19.7 1.5 11.3
22:24 13.9 13.9 100 996.3 17.4 S 19.0 0.8 11.3
22:25 13.9 13.9 100 996.2 14.5 S 19.0 0.8 11.3
22:26 13.8 13.8 100 996.2 19.0 S 19.0 0.8 11.3
22:27 13.8 13.8 100 996.3 19.0 S 19.0 0.0 11.3
22:28 13.8 13.8 100 996.3 18.3 NW 19.0 0.0 11.3
22:29 13.8 13.8 100 996.3 17.4 SE 19.0 0.0 11.4
22:30 13.8 13.8 100 996.3 17.4 SE 19.0 0.8 11.4
22:31 13.8 13.8 100 996.0 13.0 S 19.0 0.8 11.4
22:32 13.7 13.7 100 996.4 17.4 S 19.0 0.8 11.4
22:33 13.7 13.7 100 996.3 19.0 S 19.0 0.8 11.4
22:34 13.7 13.7 100 995.9 15.9 SW 19.0 0.8 11.4
22:35 13.7 13.7 100 996.3 11.4 SW 19.0 0.0 11.4
22:36 13.7 13.7 100 996.2 14.5 S 19.0 0.0 11.4
22:37 13.6 13.6 100 996.1 13.6 S 19.0 0.0 11.4
22:38 13.6 13.6 100 996.1 16.8 SE 19.0 0.0 11.4
22:39 13.6 13.6 100 996.1 14.5 S 19.0 0.0 11.4
22:40 13.6 13.6 100 995.9 16.8 SW 19.0 0.0 11.4
22:41 13.6 13.6 100 996.1 14.5 S 19.0 0.0 11.5
22:42 13.6 13.6 100 995.8 14.5 S 19.0 0.8 11.5
22:43 13.6 13.6 100 995.9 14.5 S 16.8 0.8 11.5
22:44 13.5 13.5 100 995.9 14.5 S 16.8 0.8 11.5
22:45 13.5 13.5 100 996.0 11.4 S 16.8 0.8 11.5
22:46 13.5 13.5 100 996.0 20.6 E 20.6 0.8 11.5
22:47 13.5 13.5 100 996.0 20.6 E 20.6 0.0 11.5
22:48 13.5 13.5 100 995.8 12.1 SE 20.6 0.0 11.5
22:49 13.5 13.5 100 995.9 13.0 S 20.6 0.0 11.5
22:50 13.5 13.5 100 995.7 13.0 S 20.6 0.0 11.5
22:51 13.5 13.5 100 995.8 14.5 S 20.6 0.0 11.5
22:52 13.5 13.5 100 995.6 9.8 SSE 20.6 0.0 11.5
22:53 13.5 13.5 100 995.7 12.1 SSE 20.6 0.0 11.5
22:54 13.5 13.5 100 995.6 12.1 S 20.6 0.0 11.5
22:55 13.5 13.5 100 995.9 13.6 W 20.6 0.0 11.5
22:56 13.5 13.5 100 995.5 13.6 SW 20.6 0.0 11.5
22:57 13.5 13.5 100 995.6 13.6 S 20.6 0.0 11.5
22:58 13.5 13.5 100 995.4 13.6 S 14.5 0.0 11.5
22:59 13.5 13.5 100 995.4 14.5 SE 14.5 0.0 11.5
23:00 13.5 13.5 100 995.5 12.1 S 14.5 0.0 11.5
23:01 13.5 13.5 100 995.3 12.1 S 14.5 0.0 11.5
23:02 13.5 13.5 100 995.1 12.1 S 14.5 0.0 11.5
23:03 13.5 13.5 100 995.1 12.1 S 14.5 0.0 11.5
23:04 13.5 13.5 100 995.2 12.1 S 14.5 0.0 11.5
23:05 13.5 13.5 100 995.1 12.1 S 14.5 0.0 11.5
23:06 13.5 13.5 100 995.0 12.1 S 14.5 0.0 11.5
23:07 13.5 13.5 100 995.2 12.1 SW 14.5 0.0 11.5
23:08 13.5 13.5 100 995.1 15.2 S 15.2 0.0 11.5
23:09 13.5 13.5 100 995.1 13.6 SSE 15.2 0.0 11.5
23:10 13.5 13.5 100 995.4 22.1 SE 22.1 0.0 11.5
23:11 13.6 13.6 100 995.2 20.6 SW 22.1 0.0 11.5
23:12 13.6 13.6 100 995.2 24.4 SE 24.4 0.0 11.5
23:13 13.6 13.6 100 995.0 24.4 S 24.4 0.0 11.5
23:15 13.6 13.6 100 995.0 19.0 S 24.4 0.0 11.5
23:17 13.7 13.7 100 995.2 24.4 S 24.4 0.0 11.5
23:18 13.7 13.7 100 995.2 24.4 SE 24.4 0.0 11.5
23:19 13.7 13.7 100 994.9 20.6 SE 24.4 0.0 11.5
23:20 13.7 13.7 100 994.8 25.9 SE 25.9 0.0 11.5
23:21 13.7 13.7 100 995.2 17.4 S 25.9 0.0 11.5
23:22 13.7 13.7 100 995.0 17.4 S 25.9 0.0 11.5
23:23 13.7 13.7 100 995.0 13.6 SE 25.9 0.0 11.5
23:24 13.7 13.7 100 995.0 18.3 S 25.9 0.0 11.5
23:25 13.8 13.8 100 994.7 22.1 S 25.9 0.0 11.5
23:26 13.8 13.8 100 994.6 19.0 SW 25.9 0.0 11.5
23:27 13.8 13.8 100 994.6 19.0 SW 25.9 0.0 11.5
23:28 13.8 13.8 100 994.8 15.2 S 25.9 0.8 11.5
23:29 13.8 13.8 100 994.5 15.2 SE 25.9 0.8 11.5
23:30 13.8 13.8 100 994.4 13.6 WSW 25.9 0.8 11.5
23:31 13.8 13.8 100 994.5 17.4 SSE 22.1 1.5 11.6
23:32 13.8 13.8 100 994.6 17.4 S 22.1 1.5 11.6
23:33 13.8 13.8 100 994.6 18.3 S 22.1 1.5 11.7
23:34 13.8 13.8 100 994.3 18.3 SE 22.1 1.5 11.7
23:35 13.8 13.8 100 994.5 21.3 S 22.1 2.3 11.7
23:36 13.8 13.8 100 994.5 18.3 S 22.1 2.3 11.8
23:37 13.8 13.8 100 994.4 24.4 S 24.4 2.3 11.9
23:38 13.8 13.8 100 994.5 22.1 S 24.4 3.0 11.9
23:39 13.8 13.8 100 994.3 18.3 S 24.4 3.0 12.0
23:40 13.8 13.8 100 994.4 24.4 S 24.4 3.0 12.0
23:41 13.9 13.9 100 994.1 25.1 S 25.1 3.0 12.0
23:42 13.9 13.9 100 994.2 15.9 SW 25.1 3.0 12.0
23:43 13.9 13.9 100 994.1 13.6 SE 25.1 1.5 12.1
23:44 13.9 13.9 100 994.1 19.0 S 25.1 3.0 12.2
23:45 13.9 13.9 100 993.9 17.4 SW 25.1 3.0 12.3
23:46 13.9 13.9 100 993.9 17.4 SW 25.1 3.0 12.3
23:47 13.9 13.9 100 994.3 16.8 SE 25.1 5.3 12.5
23:48 13.9 13.9 100 994.1 17.4 SSE 25.1 9.1 12.8
23:49 13.8 13.8 100 994.0 22.1 S 25.1 8.3 12.9
23:50 13.8 13.8 100 993.9 17.4 S 25.1 8.3 12.9
23:51 13.8 13.8 100 993.9 16.8 S 25.1 8.3 13.0
23:52 13.8 13.8 100 993.7 24.4 WSW 25.1 9.1 13.2
23:53 13.8 13.8 100 993.5 21.3 S 24.4 5.3 13.2
23:54 13.8 13.8 100 993.6 22.1 SSE 24.4 5.3 13.3
23:55 13.8 13.8 100 993.6 15.2 S 24.4 5.3 13.5
23:56 13.8 13.8 100 993.6 18.3 SE 24.4 6.8 13.5
23:57 13.8 13.8 100 993.5 17.4 SE 24.4 4.5 13.7
23:58 13.8 13.8 100 993.4 17.4 SE 24.4 6.0 13.8
23:59 13.7 13.6 99 993.4 21.3 SW 24.4 6.0 13.9

 

 

UK - WEATHER STATION TOPSITES - UK World Weather Websites

Copyright © Carnkie Weather 2009 - 2021.